MSR14 HECA-ZSPD

Flight info

Callsign MSR14
Flight time 9h 57m
Altitude 36000
Route CA426 DCT ML23C DCT CA520 DCT BATUR DCT DEGDI DCT MELDO A16 RASDA M28 LCA N131 DOREN UA28 MUT UA285 SELVI/N0495F370 UA285 SIV UW706 TBN UG261 NOLGA N61 LAGAS M747 SUBUT T916 LEYLA N161 GASBI/K0896F370 N161 DIVNO/K0885F390 N161 SARIN/K0891S1190 A368 FKG W188 GOVSA W66 JNQ/K0896S1250 W66 DKO W64 NUTLO B208 CGO W129 KAMDA W128 FYG B208 HFE R343 SASAN SAS93A
Aircraft A359/H-SDE2E3GHIJ3J4J5LM1ORWXY/LB1D1

Departure

Time 2026-05-03 21:59
Airport Cairo International Airport (HECA)

Arrival

Time 2026-05-04 07:57
Airport Shanghai Pudong International Airport (ZSPD)
Time Latitude Longitude Altitude Speed Heading
2026-05-03 21:32 30.10856 31.39844 350 ft 0 kts 76°
2026-05-03 21:48 30.10852 31.39829 360 ft 5 kts 77°
2026-05-03 21:48 30.10848 31.39793 359 ft 4 kts 90°
2026-05-03 21:48 30.10851 31.39771 358 ft 2 kts 124°
2026-05-03 21:49 30.10864 31.39758 357 ft 2 kts 160°
2026-05-03 21:49 30.10875 31.39753 354 ft 2 kts 165°
2026-05-03 21:49 30.10883 31.39751 356 ft 0 kts 166°
2026-05-03 21:51 30.10878 31.39752 353 ft 3 kts 166°
2026-05-03 21:52 30.10831 31.39766 358 ft 11 kts 165°
2026-05-03 21:52 30.10760 31.39788 362 ft 9 kts 165°
2026-05-03 21:52 30.10698 31.39807 360 ft 10 kts 165°
2026-05-03 21:52 30.10635 31.39826 367 ft 10 kts 165°
2026-05-03 21:53 30.10567 31.39846 369 ft 11 kts 165°
2026-05-03 21:53 30.10493 31.39869 376 ft 11 kts 165°
2026-05-03 21:53 30.10420 31.39861 376 ft 11 kts 213°
2026-05-03 21:53 30.10356 31.39786 375 ft 15 kts 228°
2026-05-03 21:54 30.10279 31.39688 376 ft 12 kts 227°
2026-05-03 21:54 30.10273 31.39679 376 ft 1 kts 228°
2026-05-03 21:54 30.10256 31.39659 376 ft 6 kts 227°
2026-05-03 21:54 30.10216 31.39608 376 ft 11 kts 227°
2026-05-03 21:55 30.10147 31.39581 376 ft 10 kts 164°
2026-05-03 21:55 30.10097 31.39623 380 ft 9 kts 141°
2026-05-03 21:55 30.10059 31.39659 383 ft 0 kts 141°
2026-05-03 21:57 30.10053 31.39665 384 ft 4 kts 140°
2026-05-03 21:57 30.10019 31.39716 388 ft 12 kts 116°
2026-05-03 21:57 30.10004 31.39798 393 ft 10 kts 98°
2026-05-03 21:58 30.10013 31.39899 393 ft 15 kts 66°
2026-05-03 21:58 30.10031 31.39921 394 ft 8 kts 43°
2026-05-03 21:58 30.10051 31.39945 393 ft 4 kts 48°
2026-05-03 21:58 30.10190 31.40126 390 ft 60 kts 49°
2026-05-03 21:59 30.10629 31.40709 393 ft 133 kts 48°
2026-05-03 21:59 30.11376 31.41704 409 ft 196 kts 47°
2026-05-03 21:59 30.12302 31.43002 1114 ft 206 kts 48°
2026-05-03 21:59 30.13093 31.44383 2224 ft 214 kts 61°
2026-05-03 22:00 30.13995 31.45747 2999 ft 221 kts 31°
2026-05-03 22:00 30.15475 31.46266 3512 ft 226 kts 353°
2026-05-03 22:00 30.16969 31.45660 3686 ft 237 kts 323°
2026-05-03 22:00 30.18289 31.44494 4010 ft 246 kts 318°
2026-05-03 22:01 30.19290 31.42907 4484 ft 246 kts 290°
2026-05-03 22:01 30.19813 31.41023 5029 ft 249 kts 289°
2026-05-03 22:01 30.20829 31.39385 5613 ft 255 kts 314°
2026-05-03 22:01 30.22352 31.38293 6215 ft 262 kts 332°
2026-05-03 22:02 30.24098 31.37596 6774 ft 269 kts 340°
2026-05-03 22:02 30.25939 31.37117 7347 ft 273 kts 343°
2026-05-03 22:02 30.27815 31.36730 7932 ft 275 kts 344°
2026-05-03 22:02 30.29710 31.36352 8535 ft 277 kts 343°
2026-05-03 22:03 30.31613 31.35949 9140 ft 279 kts 342°
2026-05-03 22:03 30.33524 31.35509 9755 ft 281 kts 341°
2026-05-03 22:03 30.35442 31.35041 10277 ft 285 kts 340°
2026-05-03 22:03 30.37424 31.34530 10531 ft 299 kts 339°
2026-05-03 22:04 30.39506 31.33978 10759 ft 315 kts 339°
2026-05-03 22:04 30.41691 31.33399 10975 ft 329 kts 340°
2026-05-03 22:04 30.43971 31.32800 11197 ft 343 kts 340°
2026-05-03 22:04 30.46347 31.32182 11416 ft 356 kts 340°
2026-05-03 22:05 30.48809 31.31547 11675 ft 367 kts 340°
2026-05-03 22:05 30.51337 31.30953 12110 ft 373 kts 342°
2026-05-03 22:05 30.53913 31.30468 12589 ft 377 kts 344°
2026-05-03 22:05 30.56523 31.30031 13046 ft 381 kts 344°
2026-05-03 22:06 30.59155 31.29599 13513 ft 384 kts 344°
2026-05-03 22:06 30.61810 31.29153 13981 ft 386 kts 343°
2026-05-03 22:06 30.64476 31.28689 14391 ft 389 kts 343°
2026-05-03 22:06 30.67153 31.28210 14799 ft 391 kts 343°
2026-05-03 22:07 30.69856 31.27715 15213 ft 394 kts 343°
2026-05-03 22:07 30.72575 31.27213 15654 ft 396 kts 342°
2026-05-03 22:07 30.75304 31.26707 16088 ft 399 kts 342°
2026-05-03 22:07 30.78049 31.26197 16534 ft 401 kts 342°
2026-05-03 22:08 30.80816 31.25684 16973 ft 404 kts 342°
2026-05-03 22:08 30.83599 31.25168 17420 ft 406 kts 342°
2026-05-03 22:08 30.86397 31.24649 17867 ft 408 kts 342°
2026-05-03 22:08 30.89215 31.24128 18278 ft 411 kts 342°
2026-05-03 22:09 30.92048 31.23602 18649 ft 414 kts 342°
2026-05-03 22:09 30.94898 31.23074 19020 ft 416 kts 342°
2026-05-03 22:09 30.97721 31.22551 19398 ft 418 kts 342°
2026-05-03 22:10 31.03487 31.21481 20164 ft 422 kts 342°
2026-05-03 22:10 31.06398 31.20940 20542 ft 424 kts 341°
2026-05-03 22:10 31.09309 31.20398 20945 ft 426 kts 341°
2026-05-03 22:10 31.12246 31.19852 21339 ft 428 kts 341°
2026-05-03 22:11 31.15190 31.19303 21728 ft 430 kts 341°
2026-05-03 22:11 31.18152 31.18750 22119 ft 432 kts 341°
2026-05-03 22:11 31.21127 31.18195 22531 ft 434 kts 341°
2026-05-03 22:11 31.24122 31.17636 22959 ft 437 kts 341°
2026-05-03 22:12 31.27146 31.17112 23360 ft 441 kts 342°
2026-05-03 22:12 31.30209 31.16679 23791 ft 445 kts 343°
2026-05-03 22:12 31.33296 31.16289 24137 ft 449 kts 343°
2026-05-03 22:12 31.36418 31.15905 24502 ft 451 kts 343°
2026-05-03 22:13 31.39547 31.15512 24845 ft 454 kts 343°
2026-05-03 22:13 31.42699 31.15105 25194 ft 457 kts 343°
2026-05-03 22:13 31.45866 31.14686 25557 ft 459 kts 343°
2026-05-03 22:13 31.49048 31.14257 25895 ft 462 kts 343°
2026-05-03 22:14 31.52253 31.13821 26233 ft 465 kts 343°
2026-05-03 22:14 31.55473 31.13381 26593 ft 467 kts 343°
2026-05-03 22:14 31.58713 31.12938 26924 ft 470 kts 343°
2026-05-03 22:14 31.61970 31.12493 27265 ft 473 kts 343°
2026-05-03 22:15 31.65245 31.12046 27584 ft 475 kts 343°
2026-05-03 22:15 31.68540 31.11596 27920 ft 478 kts 343°
2026-05-03 22:15 31.71855 31.11143 28253 ft 480 kts 342°
2026-05-03 22:15 31.75174 31.10690 28575 ft 483 kts 342°
2026-05-03 22:16 31.78523 31.10232 28879 ft 485 kts 342°
2026-05-03 22:16 31.81887 31.09772 29204 ft 488 kts 342°
2026-05-03 22:16 31.85266 31.09309 29505 ft 490 kts 342°
2026-05-03 22:16 31.88655 31.08845 29767 ft 492 kts 342°
2026-05-03 22:17 31.92066 31.08377 30053 ft 494 kts 342°
2026-05-03 22:17 31.95488 31.07907 30292 ft 496 kts 342°
2026-05-03 22:17 31.98883 31.07441 30535 ft 498 kts 342°
2026-05-03 22:17 32.02314 31.06973 30867 ft 497 kts 342°
2026-05-03 22:18 32.05754 31.06510 31158 ft 497 kts 343°
2026-05-03 22:18 32.09202 31.06104 31458 ft 499 kts 343°
2026-05-03 22:18 32.12659 31.05738 31761 ft 499 kts 344°
2026-05-03 22:18 32.16115 31.05385 32045 ft 499 kts 344°
2026-05-03 22:19 32.19571 31.05029 32323 ft 498 kts 343°
2026-05-03 22:19 32.23026 31.04665 32606 ft 498 kts 343°
2026-05-03 22:19 32.26477 31.04294 32897 ft 497 kts 343°
2026-05-03 22:19 32.29915 31.03919 33168 ft 497 kts 343°
2026-05-03 22:20 32.33357 31.03540 33438 ft 496 kts 343°
2026-05-03 22:20 32.36800 31.03159 33706 ft 496 kts 343°
2026-05-03 22:20 32.40230 31.02779 33995 ft 495 kts 343°
2026-05-03 22:20 32.43661 31.02399 34212 ft 495 kts 343°
2026-05-03 22:21 32.47086 31.02019 34412 ft 495 kts 343°
2026-05-03 22:21 32.50514 31.01638 34607 ft 495 kts 343°
2026-05-03 22:21 32.53947 31.01257 34810 ft 495 kts 344°
2026-05-03 22:21 32.57366 31.00878 35002 ft 495 kts 344°
2026-05-03 22:22 32.60799 31.00497 35192 ft 495 kts 344°
2026-05-03 22:22 32.64229 31.00115 35365 ft 495 kts 344°
2026-05-03 22:22 32.67658 30.99734 35576 ft 495 kts 344°
2026-05-03 22:22 32.71081 30.99354 35752 ft 494 kts 345°
2026-05-03 22:23 32.74502 30.98973 35939 ft 494 kts 345°
2026-05-03 22:23 32.81390 30.98200 36005 ft 501 kts 345°
2026-05-03 22:24 32.88345 30.97421 35998 ft 501 kts 345°
2026-05-03 22:24 32.95287 30.96652 35998 ft 500 kts 345°
2026-05-03 22:25 33.02274 30.96218 35990 ft 513 kts 354°
2026-05-03 22:25 33.05846 30.96802 35991 ft 525 kts
2026-05-03 22:25 33.09365 30.98141 35984 ft 538 kts 16°
2026-05-03 22:25 33.12691 31.00279 35982 ft 551 kts 28°
2026-05-03 22:26 33.15692 31.03217 35983 ft 561 kts 41°
2026-05-03 22:26 33.20868 31.10254 35985 ft 567 kts 46°
2026-05-03 22:27 33.25796 31.17532 35982 ft 567 kts 47°
2026-05-03 22:27 33.30761 31.24855 35984 ft 567 kts 47°
2026-05-03 22:28 33.35766 31.32142 35972 ft 567 kts 47°
2026-05-03 22:28 33.40779 31.39409 35974 ft 566 kts 47°
2026-05-03 22:29 33.45791 31.46683 35970 ft 566 kts 47°
2026-05-03 22:29 33.50797 31.53971 35967 ft 566 kts 47°
2026-05-03 22:30 33.55791 31.61258 35959 ft 566 kts 47°
2026-05-03 22:30 33.59973 31.67372 35959 ft 566 kts 47°
2026-05-03 22:31 33.64956 31.74671 35951 ft 565 kts 47°
2026-05-03 22:31 33.69938 31.81982 35954 ft 565 kts 48°
2026-05-03 22:32 33.74906 31.89288 35948 ft 565 kts 48°
2026-05-03 22:32 33.79865 31.96595 35950 ft 564 kts 48°
2026-05-03 22:33 33.84815 32.03904 35947 ft 563 kts 48°
2026-05-03 22:33 33.89710 32.11185 35941 ft 563 kts 49°
2026-05-03 22:34 33.94596 32.18635 35931 ft 563 kts 50°
2026-05-03 22:34 33.99398 32.25995 35935 ft 563 kts 50°
2026-05-03 22:35 34.04237 32.33403 35930 ft 562 kts 50°
2026-05-03 22:35 34.09080 32.40812 35925 ft 560 kts 50°
2026-05-03 22:36 34.13887 32.48182 35917 ft 559 kts 50°
2026-05-03 22:36 34.18691 32.55561 35913 ft 559 kts 50°
2026-05-03 22:37 34.23489 32.62948 35907 ft 558 kts 50°
2026-05-03 22:37 34.28281 32.70340 35907 ft 558 kts 50°
2026-05-03 22:38 34.33061 32.77739 35894 ft 558 kts 51°
2026-05-03 22:38 34.37827 32.85134 35875 ft 558 kts 51°
2026-05-03 22:39 34.42596 32.92546 35863 ft 557 kts 51°
2026-05-03 22:39 34.47353 32.99951 35853 ft 557 kts 51°
2026-05-03 22:40 34.52100 33.07351 35854 ft 556 kts 51°
2026-05-03 22:40 34.56837 33.14754 35859 ft 555 kts 51°
2026-05-03 22:41 34.61566 33.22159 35862 ft 555 kts 51°
2026-05-03 22:41 34.66286 33.29565 35870 ft 554 kts 51°
2026-05-03 22:42 34.71000 33.36974 35867 ft 554 kts 51°
2026-05-03 22:42 34.75714 33.44381 35864 ft 554 kts 51°
2026-05-03 22:43 34.80504 33.51728 35858 ft 553 kts 46°
2026-05-03 22:43 34.86409 33.57491 35858 ft 545 kts 25°
2026-05-03 22:43 34.89859 33.59310 35861 ft 538 kts 13°
2026-05-03 22:44 34.93482 33.60307 35855 ft 530 kts
2026-05-03 22:44 34.97130 33.60472 35856 ft 520 kts 350°
2026-05-03 22:44 35.00672 33.59848 35858 ft 510 kts 339°
2026-05-03 22:45 35.07175 33.56759 35857 ft 502 kts 332°
2026-05-03 22:45 35.13882 33.54133 35862 ft 509 kts 337°
2026-05-03 22:46 35.20723 33.51815 35858 ft 511 kts 339°
2026-05-03 22:46 35.27597 33.49599 35856 ft 511 kts 339°
2026-05-03 22:47 35.34492 33.47392 35853 ft 511 kts 339°
2026-05-03 22:47 35.41377 33.45174 35848 ft 512 kts 339°
2026-05-03 22:48 35.48256 33.42947 35843 ft 512 kts 339°
2026-05-03 22:48 35.55160 33.40706 35833 ft 512 kts 339°
2026-05-03 22:49 35.62059 33.38463 35832 ft 513 kts 339°
2026-05-03 22:49 35.68958 33.36216 35840 ft 513 kts 339°
2026-05-03 22:50 35.75853 33.33967 35838 ft 513 kts 339°
2026-05-03 22:50 35.82753 33.31712 35836 ft 513 kts 339°
2026-05-03 22:51 35.89659 33.29457 35837 ft 514 kts 340°
2026-05-03 22:51 35.96785 33.28457 35844 ft 525 kts 355°
2026-05-03 22:52 36.04108 33.28611 35840 ft 528 kts 357°
2026-05-03 22:52 36.11446 33.28678 35839 ft 526 kts 354°
2026-05-03 22:53 36.18756 33.28511 35829 ft 527 kts 355°
2026-05-03 22:53 36.26091 33.28525 35825 ft 528 kts 356°
2026-05-03 22:54 36.33455 33.28622 35815 ft 528 kts 356°
2026-05-03 22:54 36.40803 33.28717 35808 ft 529 kts 356°
2026-05-03 22:55 36.48159 33.28799 35801 ft 529 kts 356°
2026-05-03 22:55 36.55520 33.28871 35792 ft 528 kts 356°
2026-05-03 22:56 36.62881 33.28944 35788 ft 529 kts 356°
2026-05-03 22:56 36.70247 33.29017 35783 ft 530 kts 356°
2026-05-03 22:57 36.77618 33.29101 35784 ft 531 kts 356°
2026-05-03 22:57 36.84948 33.30592 35775 ft 540 kts 16°
2026-05-03 22:57 36.88382 33.32478 35770 ft 543 kts 28°
2026-05-03 22:58 36.91518 33.35156 35773 ft 545 kts 39°
2026-05-03 22:58 36.97223 33.41418 35768 ft 547 kts 43°
2026-05-03 22:59 37.02750 33.47884 35770 ft 547 kts 43°
2026-05-03 22:59 37.08314 33.54385 35765 ft 547 kts 43°
2026-05-03 23:00 37.13904 33.60857 35761 ft 547 kts 42°
2026-05-03 23:00 37.19511 33.67332 35760 ft 547 kts 42°
2026-05-03 23:01 37.25107 33.73804 35755 ft 547 kts 42°
2026-05-03 23:01 37.30696 33.80286 35757 ft 547 kts 42°
2026-05-03 23:02 37.36285 33.86784 35752 ft 547 kts 42°
2026-05-03 23:02 37.41871 33.93291 35750 ft 547 kts 43°
2026-05-03 23:03 37.47448 33.99807 35741 ft 547 kts 43°
2026-05-03 23:03 37.53015 34.06335 35739 ft 548 kts 43°
2026-05-03 23:04 37.58587 34.12882 35748 ft 547 kts 43°
2026-05-03 23:04 37.64151 34.19434 35775 ft 547 kts 43°
2026-05-03 23:05 37.69719 34.26003 35794 ft 547 kts 43°
2026-05-03 23:05 37.75282 34.32580 35833 ft 548 kts 43°
2026-05-03 23:06 37.80839 34.39166 35862 ft 548 kts 43°
2026-05-03 23:06 37.86403 34.45774 35853 ft 548 kts 43°
2026-05-03 23:07 37.91905 34.52320 36298 ft 543 kts 43°
2026-05-03 23:07 37.94650 34.55583 36586 ft 540 kts 43°
2026-05-03 23:07 37.97427 34.58888 36767 ft 540 kts 43°
2026-05-03 23:08 38.02895 34.65404 36808 ft 546 kts 43°
2026-05-03 23:08 38.08431 34.72016 36781 ft 546 kts 43°
2026-05-03 23:09 38.13955 34.78631 36760 ft 546 kts 43°
2026-05-03 23:09 38.19477 34.85255 36754 ft 545 kts 43°
2026-05-03 23:10 38.24988 34.91883 36750 ft 545 kts 43°
2026-05-03 23:10 38.30499 34.98510 36745 ft 545 kts 43°
2026-05-03 23:11 38.36011 35.05127 36752 ft 545 kts 43°
2026-05-03 23:11 38.41627 35.11616 36728 ft 544 kts 39°
2026-05-03 23:12 38.47452 35.17748 36751 ft 543 kts 38°
2026-05-03 23:12 38.53280 35.23872 36730 ft 543 kts 38°
2026-05-03 23:13 38.58763 35.30499 36741 ft 543 kts 45°
2026-05-03 23:13 38.64002 35.37452 36737 ft 542 kts 46°
2026-05-03 23:14 38.69235 35.44320 36745 ft 541 kts 45°
2026-05-03 23:14 38.74538 35.51155 36750 ft 541 kts 45°
2026-05-03 23:15 38.79869 35.57989 36746 ft 541 kts 45°
2026-05-03 23:15 38.85188 35.64822 36749 ft 541 kts 45°
2026-05-03 23:16 38.90503 35.71671 36747 ft 542 kts 45°
2026-05-03 23:16 38.94918 35.77374 36745 ft 541 kts 45°
2026-05-03 23:17 39.00335 35.84175 36747 ft 541 kts 44°
2026-05-03 23:17 39.05775 35.90881 36749 ft 541 kts 44°
2026-05-03 23:18 39.11190 35.97595 36749 ft 541 kts 44°
2026-05-03 23:18 39.16590 36.04343 36744 ft 540 kts 45°
2026-05-03 23:19 39.21826 36.11289 36751 ft 540 kts 47°
2026-05-03 23:19 39.26980 36.18344 36747 ft 539 kts 47°
2026-05-03 23:20 39.32134 36.25366 36745 ft 539 kts 47°
2026-05-03 23:20 39.37306 36.32372 36746 ft 538 kts 47°
2026-05-03 23:21 39.42475 36.39374 36746 ft 538 kts 47°
2026-05-03 23:21 39.47638 36.46385 36741 ft 538 kts 47°
2026-05-03 23:22 39.55364 36.56917 36745 ft 538 kts 47°
2026-05-03 23:22 39.60480 36.63918 36750 ft 538 kts 47°
2026-05-03 23:23 39.65621 36.70968 36756 ft 538 kts 47°
2026-05-03 23:23 39.70755 36.78024 36769 ft 537 kts 47°
2026-05-03 23:24 39.75882 36.85088 36773 ft 537 kts 47°
2026-05-03 23:24 39.80393 36.92758 36773 ft 534 kts 60°
2026-05-03 23:25 39.84144 37.01096 36771 ft 533 kts 62°
2026-05-03 23:25 39.87764 37.09517 36758 ft 533 kts 63°
2026-05-03 23:26 39.91376 37.17950 36749 ft 532 kts 62°
2026-05-03 23:26 39.94993 37.26365 36731 ft 533 kts 62°
2026-05-03 23:27 39.98610 37.34780 36731 ft 532 kts 62°
2026-05-03 23:27 40.02221 37.43200 36721 ft 532 kts 62°
2026-05-03 23:28 40.05822 37.51618 36721 ft 531 kts 63°
2026-05-03 23:28 40.09418 37.60041 36723 ft 531 kts 63°
2026-05-03 23:29 40.13030 37.68473 36723 ft 532 kts 63°
2026-05-03 23:29 40.16640 37.76914 36724 ft 532 kts 63°
2026-05-03 23:30 40.20236 37.85349 36723 ft 531 kts 63°
2026-05-03 23:30 40.22032 37.89570 36859 ft 531 kts 64°
2026-05-03 23:30 40.23821 37.93771 36735 ft 525 kts 64°
2026-05-03 23:31 40.27335 38.02059 36724 ft 518 kts 64°
2026-05-03 23:31 40.30816 38.10306 36722 ft 517 kts 64°
2026-05-03 23:32 40.34272 38.18552 36726 ft 516 kts 65°
2026-05-03 23:32 40.37607 38.26869 36730 ft 515 kts 66°
2026-05-03 23:33 40.40998 38.35143 36737 ft 515 kts 64°
2026-05-03 23:33 40.44525 38.43265 36742 ft 515 kts 63°
2026-05-03 23:34 40.48095 38.51479 36751 ft 515 kts 64°
2026-05-03 23:34 40.51609 38.59667 36753 ft 514 kts 65°
2026-05-03 23:35 40.55008 38.67935 36758 ft 514 kts 65°
2026-05-03 23:35 40.58354 38.76234 36758 ft 514 kts 66°
2026-05-03 23:36 40.61713 38.84541 36760 ft 514 kts 66°
2026-05-03 23:36 40.65081 38.92846 36751 ft 514 kts 66°
2026-05-03 23:37 40.68411 39.01101 36747 ft 514 kts 66°
2026-05-03 23:37 40.71753 39.09439 36753 ft 514 kts 66°
2026-05-03 23:38 40.75087 39.17779 36752 ft 514 kts 66°
2026-05-03 23:38 40.78418 39.26122 36754 ft 514 kts 66°
2026-05-03 23:39 40.81741 39.34461 36752 ft 513 kts 66°
2026-05-03 23:39 40.85055 39.42804 36760 ft 514 kts 66°
2026-05-03 23:40 40.88368 39.51175 36759 ft 513 kts 66°
2026-05-03 23:40 40.91676 39.59548 36770 ft 513 kts 66°
2026-05-03 23:41 40.94974 39.67925 36789 ft 514 kts 66°
2026-05-03 23:41 40.98240 39.76320 36769 ft 512 kts 69°
2026-05-03 23:42 41.00372 39.85193 36763 ft 503 kts 82°
2026-05-03 23:42 41.01799 39.94245 36770 ft 502 kts 84°
2026-05-03 23:43 41.03120 40.03328 36770 ft 502 kts 84°
2026-05-03 23:43 41.04440 40.12414 36770 ft 502 kts 84°
2026-05-03 23:44 41.05791 40.21646 36775 ft 503 kts 83°
2026-05-03 23:44 41.07083 40.30469 36777 ft 503 kts 83°
2026-05-03 23:45 41.08408 40.39563 36776 ft 503 kts 83°
2026-05-03 23:45 41.09735 40.48726 36767 ft 503 kts 84°
2026-05-03 23:46 41.11036 40.57777 36757 ft 503 kts 84°
2026-05-03 23:46 41.12341 40.66905 36749 ft 503 kts 84°
2026-05-03 23:47 41.13640 40.76041 36744 ft 503 kts 84°
2026-05-03 23:47 41.14930 40.85172 36747 ft 503 kts 84°
2026-05-03 23:48 41.16212 40.94301 36746 ft 503 kts 84°
2026-05-03 23:48 41.17487 41.03446 36749 ft 504 kts 84°
2026-05-03 23:49 41.18757 41.12595 36756 ft 504 kts 84°
2026-05-03 23:49 41.20020 41.21757 36765 ft 506 kts 84°
2026-05-03 23:50 41.21064 41.29389 36762 ft 505 kts 84°
2026-05-03 23:50 41.22535 41.40137 36763 ft 506 kts 84°
2026-05-03 23:51 41.23775 41.49301 36774 ft 507 kts 84°
2026-05-03 23:51 41.25017 41.58540 36775 ft 508 kts 84°
2026-05-03 23:52 41.26250 41.67791 36773 ft 510 kts 84°
2026-05-03 23:52 41.27484 41.77084 36781 ft 511 kts 84°
2026-05-03 23:53 41.28712 41.86389 36783 ft 512 kts 84°
2026-05-03 23:53 41.29939 41.95730 36792 ft 513 kts 84°
2026-05-03 23:54 41.31158 42.05077 36784 ft 513 kts 84°
2026-05-03 23:54 41.32368 42.14445 36791 ft 514 kts 84°
2026-05-03 23:55 41.33573 42.23818 36791 ft 514 kts 84°
2026-05-03 23:55 41.34772 42.33198 36791 ft 514 kts 84°
2026-05-03 23:56 41.35961 42.42591 36796 ft 515 kts 84°
2026-05-03 23:56 41.37145 42.51991 36794 ft 515 kts 84°
2026-05-03 23:57 41.38324 42.61401 36795 ft 515 kts 84°
2026-05-03 23:57 41.39492 42.70814 36792 ft 515 kts 84°
2026-05-03 23:58 41.40649 42.80181 36793 ft 516 kts 84°
2026-05-03 23:58 41.41812 42.89666 36800 ft 516 kts 84°
2026-05-03 23:59 41.42960 42.99101 36800 ft 516 kts 84°
2026-05-03 23:59 41.44094 43.08495 36802 ft 517 kts 84°
2026-05-04 00:00 41.45216 43.17947 36810 ft 517 kts 85°
2026-05-04 00:00 41.46148 43.25846 36812 ft 518 kts 85°
2026-05-04 00:01 41.47264 43.35341 36819 ft 518 kts 85°
2026-05-04 00:01 41.48373 43.44843 36830 ft 519 kts 85°
2026-05-04 00:02 41.49477 43.54363 36842 ft 519 kts 85°
2026-05-04 00:02 41.50569 43.63864 36859 ft 519 kts 85°
2026-05-04 00:03 41.51654 43.73374 36877 ft 518 kts 85°
2026-05-04 00:03 41.52733 43.82891 36894 ft 519 kts 85°
2026-05-04 00:04 41.53801 43.92402 36913 ft 519 kts 85°
2026-05-04 00:04 41.54866 44.01946 36923 ft 519 kts 85°
2026-05-04 00:05 41.55916 44.11432 36946 ft 521 kts 85°
2026-05-04 00:05 41.56644 44.21013 36944 ft 516 kts 95°
2026-05-04 00:06 41.55455 44.30299 36953 ft 504 kts 111°
2026-05-04 00:06 41.53330 44.39215 36978 ft 504 kts 113°
2026-05-04 00:07 41.51078 44.48056 36974 ft 504 kts 114°
2026-05-04 00:07 41.48825 44.56947 36982 ft 505 kts 113°
2026-05-04 00:08 41.46594 44.65832 36985 ft 506 kts 113°
2026-05-04 00:08 41.44365 44.74724 36987 ft 506 kts 113°
2026-05-04 00:09 41.42128 44.83617 36986 ft 506 kts 113°
2026-05-04 00:09 41.39881 44.92509 36986 ft 507 kts 113°
2026-05-04 00:10 41.37625 45.01404 36985 ft 507 kts 113°
2026-05-04 00:10 41.35362 45.10296 36979 ft 508 kts 113°
2026-05-04 00:11 41.33091 45.19187 36973 ft 508 kts 114°
2026-05-04 00:11 41.30802 45.28088 36972 ft 509 kts 114°
2026-05-04 00:12 41.28504 45.36994 36976 ft 509 kts 114°
2026-05-04 00:12 41.26198 45.45903 36965 ft 510 kts 114°
2026-05-04 00:13 41.23887 45.54805 36965 ft 510 kts 114°
2026-05-04 00:13 41.21568 45.63708 36969 ft 511 kts 114°
2026-05-04 00:14 41.19235 45.72634 36972 ft 511 kts 114°
2026-05-04 00:14 41.16900 45.81485 36976 ft 512 kts 114°
2026-05-04 00:15 41.14539 45.90393 36983 ft 512 kts 114°
2026-05-04 00:15 41.12172 45.99303 36977 ft 513 kts 114°
2026-05-04 00:16 41.09798 46.08213 36979 ft 513 kts 114°
2026-05-04 00:16 41.07412 46.17140 36978 ft 513 kts 114°
2026-05-04 00:17 41.05020 46.26055 36978 ft 514 kts 114°
2026-05-04 00:17 41.02627 46.34983 36977 ft 515 kts 114°
2026-05-04 00:18 41.00242 46.43916 36978 ft 515 kts 114°
2026-05-04 00:18 40.97843 46.52870 36976 ft 516 kts 114°
2026-05-04 00:19 40.95436 46.61817 36978 ft 516 kts 114°
2026-05-04 00:19 40.93017 46.70771 36981 ft 517 kts 114°
2026-05-04 00:20 40.91072 46.79956 36979 ft 525 kts 101°
2026-05-04 00:20 40.90870 46.84788 36981 ft 529 kts 90°
2026-05-04 00:20 40.91296 46.89561 36996 ft 532 kts 80°
2026-05-04 00:21 40.92936 46.99122 36986 ft 534 kts 77°
2026-05-04 00:21 40.94772 47.08650 36984 ft 535 kts 77°
2026-05-04 00:22 40.96583 47.18196 36988 ft 534 kts 77°
2026-05-04 00:22 40.98345 47.27748 36992 ft 534 kts 78°
2026-05-04 00:23 41.00082 47.37301 36985 ft 533 kts 78°
2026-05-04 00:23 41.01807 47.46843 36984 ft 532 kts 78°
2026-05-04 00:24 41.03522 47.56370 36976 ft 532 kts 78°
2026-05-04 00:24 41.05228 47.65888 36975 ft 531 kts 78°
2026-05-04 00:25 41.06928 47.75416 36966 ft 530 kts 77°
2026-05-04 00:25 41.08616 47.84928 36953 ft 530 kts 78°
2026-05-04 00:26 41.10403 47.94397 36938 ft 530 kts 71°
2026-05-04 00:26 41.13734 48.03075 36932 ft 529 kts 55°
2026-05-04 00:27 41.17996 48.11041 36936 ft 530 kts 52°
2026-05-04 00:27 41.22396 48.18919 36936 ft 532 kts 52°
2026-05-04 00:28 41.26798 48.26847 36953 ft 534 kts 52°
2026-05-04 00:28 41.31184 48.34832 36967 ft 536 kts 53°
2026-05-04 00:29 41.35576 48.42881 36980 ft 538 kts 53°
2026-05-04 00:29 41.39940 48.50901 36994 ft 539 kts 53°
2026-05-04 00:30 41.44376 48.59035 37007 ft 539 kts 52°
2026-05-04 00:30 41.48835 48.67008 37014 ft 540 kts 52°
2026-05-04 00:31 41.53330 48.75019 37020 ft 539 kts 52°
2026-05-04 00:31 41.57605 48.83239 37021 ft 538 kts 56°
2026-05-04 00:32 41.61710 48.91592 37022 ft 537 kts 56°
2026-05-04 00:32 41.65821 48.99914 37023 ft 536 kts 55°
2026-05-04 00:33 41.72020 49.12334 37023 ft 535 kts 55°
2026-05-04 00:34 41.76150 49.20608 37024 ft 534 kts 55°
2026-05-04 00:34 41.80269 49.28886 37024 ft 534 kts 55°
2026-05-04 00:35 41.84488 49.37075 37023 ft 533 kts 52°
2026-05-04 00:35 41.88913 49.45048 37024 ft 533 kts 51°
2026-05-04 00:36 41.93343 49.53030 37026 ft 533 kts 52°
2026-05-04 00:36 41.97734 49.61067 37019 ft 533 kts 52°
2026-05-04 00:37 42.02092 49.69114 37018 ft 533 kts 52°
2026-05-04 00:37 42.06419 49.77133 37018 ft 533 kts 52°
2026-05-04 00:38 42.10771 49.85215 37018 ft 533 kts 52°
2026-05-04 00:38 42.15118 49.93308 37019 ft 533 kts 52°
2026-05-04 00:39 42.19461 50.01412 37014 ft 533 kts 52°
2026-05-04 00:39 42.23797 50.09526 37016 ft 533 kts 53°
2026-05-04 00:40 42.28119 50.17636 37011 ft 533 kts 53°
2026-05-04 00:40 42.32442 50.25769 37012 ft 533 kts 53°
2026-05-04 00:41 42.36758 50.33911 37009 ft 532 kts 53°
2026-05-04 00:41 42.41064 50.42059 37009 ft 532 kts 53°
2026-05-04 00:42 42.45348 50.50146 37011 ft 532 kts 52°
2026-05-04 00:42 42.49891 50.58106 37005 ft 531 kts 50°
2026-05-04 00:43 42.54442 50.65902 37004 ft 530 kts 50°
2026-05-04 00:43 42.58981 50.73793 37004 ft 530 kts 51°
2026-05-04 00:44 42.63488 50.81716 37004 ft 530 kts 51°
2026-05-04 00:44 42.67978 50.89651 37005 ft 529 kts 51°
2026-05-04 00:45 42.72459 50.97587 37001 ft 529 kts 51°
2026-05-04 00:45 42.76933 51.05528 37002 ft 528 kts 51°
2026-05-04 00:46 42.81399 51.13474 36996 ft 528 kts 51°
2026-05-04 00:46 42.85854 51.21422 36995 ft 528 kts 51°
2026-05-04 00:47 42.90303 51.29381 36991 ft 527 kts 51°
2026-05-04 00:47 42.94743 51.37345 36985 ft 527 kts 52°
2026-05-04 00:48 42.99170 51.45308 36982 ft 526 kts 52°
2026-05-04 00:48 43.03592 51.53284 36976 ft 526 kts 52°
2026-05-04 00:49 43.07257 51.59908 36974 ft 526 kts 52°
2026-05-04 00:49 43.11658 51.67886 37081 ft 525 kts 52°
2026-05-04 00:49 43.13853 51.71872 37357 ft 523 kts 52°
2026-05-04 00:50 43.16747 51.77137 37633 ft 522 kts 52°
2026-05-04 00:50 43.18219 51.79816 37753 ft 522 kts 52°
2026-05-04 00:50 43.20400 51.83793 37910 ft 522 kts 52°
2026-05-04 00:50 43.22573 51.87760 38066 ft 522 kts 52°
2026-05-04 00:51 43.24755 51.91748 38230 ft 522 kts 52°
2026-05-04 00:51 43.26926 51.95723 38408 ft 521 kts 52°
2026-05-04 00:51 43.29105 51.99716 38579 ft 521 kts 52°
2026-05-04 00:51 43.31276 52.03702 38700 ft 521 kts 52°
2026-05-04 00:52 43.33442 52.07685 38815 ft 521 kts 52°
2026-05-04 00:52 43.35608 52.11672 38923 ft 521 kts 52°
2026-05-04 00:52 43.37779 52.15673 38971 ft 522 kts 52°
2026-05-04 00:53 43.42133 52.23713 38971 ft 525 kts 52°
2026-05-04 00:53 43.46489 52.31780 38974 ft 524 kts 52°
2026-05-04 00:54 43.50798 52.39782 38976 ft 524 kts 52°
2026-05-04 00:54 43.55141 52.47871 38975 ft 524 kts 52°
2026-05-04 00:55 43.59474 52.55962 38976 ft 524 kts 52°
2026-05-04 00:55 43.63804 52.64068 38979 ft 525 kts 52°
2026-05-04 00:56 43.68126 52.72188 38978 ft 525 kts 53°
2026-05-04 00:56 43.72437 52.80338 38983 ft 524 kts 53°
2026-05-04 00:57 43.76730 52.88483 38979 ft 524 kts 53°
2026-05-04 00:57 43.81028 52.96653 38979 ft 524 kts 53°
2026-05-04 00:58 43.85315 53.04824 38977 ft 524 kts 53°
2026-05-04 00:58 43.89566 53.12947 38980 ft 524 kts 53°
2026-05-04 00:59 43.93840 53.21135 38978 ft 524 kts 53°
2026-05-04 00:59 43.98099 53.29332 38979 ft 524 kts 53°
2026-05-04 01:00 44.02352 53.37538 38982 ft 523 kts 53°
2026-05-04 01:00 44.06599 53.45752 38986 ft 523 kts 53°
2026-05-04 01:01 44.10838 53.53974 38986 ft 522 kts 53°
2026-05-04 01:01 44.15065 53.62193 38987 ft 522 kts 53°
2026-05-04 01:02 44.19282 53.70419 38988 ft 521 kts 53°
2026-05-04 01:02 44.23490 53.78650 38986 ft 521 kts 53°
2026-05-04 01:03 44.27680 53.86867 38989 ft 520 kts 53°
2026-05-04 01:03 44.31866 53.95100 38989 ft 520 kts 54°
2026-05-04 01:04 44.36039 54.03333 38990 ft 519 kts 54°
2026-05-04 01:04 44.40208 54.11579 38992 ft 519 kts 54°
2026-05-04 01:05 44.44366 54.19828 38989 ft 519 kts 54°
2026-05-04 01:05 44.48518 54.28088 38990 ft 519 kts 54°
2026-05-04 01:06 44.52667 54.36366 38992 ft 519 kts 54°
2026-05-04 01:06 44.56814 54.44664 38989 ft 519 kts 54°
2026-05-04 01:07 44.60917 54.52898 38989 ft 518 kts 54°
2026-05-04 01:07 44.65065 54.61164 38985 ft 518 kts 51°
2026-05-04 01:08 44.70025 54.68462 38990 ft 516 kts 42°
2026-05-04 01:08 44.75310 54.75306 38989 ft 516 kts 40°
2026-05-04 01:09 44.80638 54.82085 38988 ft 516 kts 40°
2026-05-04 01:09 44.85957 54.88887 38988 ft 516 kts 41°
2026-05-04 01:10 44.91266 54.95724 38988 ft 516 kts 41°
2026-05-04 01:10 44.96553 55.02562 38990 ft 515 kts 41°
2026-05-04 01:11 45.01834 55.09410 38995 ft 515 kts 41°
2026-05-04 01:11 45.06908 55.16532 38988 ft 516 kts 50°
2026-05-04 01:12 45.10509 55.25277 38988 ft 516 kts 66°
2026-05-04 01:12 45.13213 55.34700 38992 ft 516 kts 69°
2026-05-04 01:13 45.15765 55.44208 38989 ft 516 kts 69°
2026-05-04 01:13 45.18320 55.53713 38990 ft 516 kts 69°
2026-05-04 01:14 45.20892 55.63204 38988 ft 516 kts 69°
2026-05-04 01:14 45.23449 55.72630 38993 ft 515 kts 69°
2026-05-04 01:15 45.26016 55.82130 38993 ft 515 kts 69°
2026-05-04 01:15 45.28569 55.91618 38998 ft 515 kts 69°
2026-05-04 01:16 45.31113 56.01116 38998 ft 514 kts 69°
2026-05-04 01:16 45.33647 56.10612 39003 ft 514 kts 69°
2026-05-04 01:17 45.36172 56.20116 39004 ft 514 kts 69°
2026-05-04 01:17 45.38688 56.29620 39001 ft 513 kts 69°
2026-05-04 01:18 45.41195 56.39131 39006 ft 513 kts 69°
2026-05-04 01:18 45.43694 56.48649 39008 ft 513 kts 69°
2026-05-04 01:19 45.46189 56.58187 39013 ft 514 kts 69°
2026-05-04 01:19 45.48675 56.67733 39013 ft 514 kts 69°
2026-05-04 01:20 45.51136 56.77223 39019 ft 514 kts 69°
2026-05-04 01:20 45.53603 56.86775 39019 ft 514 kts 69°
2026-05-04 01:21 45.56063 56.96338 39020 ft 514 kts 70°
2026-05-04 01:21 45.58518 57.05919 39026 ft 514 kts 70°
2026-05-04 01:22 45.60966 57.15516 39024 ft 513 kts 70°
2026-05-04 01:22 45.63401 57.25099 39028 ft 513 kts 70°
2026-05-04 01:23 45.65825 57.34679 39033 ft 512 kts 70°
2026-05-04 01:23 45.68238 57.44255 39035 ft 512 kts 70°
2026-05-04 01:24 45.70647 57.53856 39036 ft 512 kts 70°
2026-05-04 01:24 45.73043 57.63444 39037 ft 512 kts 70°
2026-05-04 01:25 45.75435 57.73057 39043 ft 512 kts 70°
2026-05-04 01:25 45.77818 57.82677 39042 ft 513 kts 70°
2026-05-04 01:26 45.80193 57.92307 39046 ft 513 kts 70°
2026-05-04 01:26 45.82560 58.01944 39048 ft 512 kts 70°
2026-05-04 01:27 45.84918 58.11587 39050 ft 512 kts 70°
2026-05-04 01:27 45.87270 58.21244 39054 ft 512 kts 70°
2026-05-04 01:28 45.89610 58.30897 39056 ft 512 kts 70°
2026-05-04 01:28 45.91928 58.40499 39058 ft 512 kts 70°
2026-05-04 01:29 45.94252 58.50167 39063 ft 512 kts 70°
2026-05-04 01:29 45.96566 58.59831 39064 ft 512 kts 70°
2026-05-04 01:30 45.98874 58.69517 39065 ft 512 kts 70°
2026-05-04 01:30 46.01169 58.79190 39072 ft 511 kts 70°
2026-05-04 01:31 46.03458 58.88879 39069 ft 511 kts 70°
2026-05-04 01:31 46.05735 58.98563 39074 ft 511 kts 70°
2026-05-04 01:32 46.08004 59.08253 39074 ft 511 kts 70°
2026-05-04 01:32 46.10265 59.17952 39075 ft 510 kts 71°
2026-05-04 01:33 46.12516 59.27651 39076 ft 510 kts 71°
2026-05-04 01:33 46.14761 59.37370 39075 ft 510 kts 71°
2026-05-04 01:34 46.16997 59.47090 39078 ft 510 kts 71°
2026-05-04 01:34 46.19223 59.56813 39083 ft 511 kts 71°
2026-05-04 01:35 46.21428 59.66483 39087 ft 511 kts 71°
2026-05-04 01:35 46.23640 59.76236 39086 ft 511 kts 71°
2026-05-04 01:36 46.25830 59.85994 39084 ft 511 kts 71°
2026-05-04 01:36 46.27658 59.94191 39088 ft 511 kts 71°
2026-05-04 01:37 46.30182 60.05549 39096 ft 511 kts 71°
2026-05-04 01:37 46.32348 60.15339 39098 ft 511 kts 71°
2026-05-04 01:38 46.34158 60.23549 39102 ft 511 kts 71°
2026-05-04 01:38 46.36308 60.33350 39101 ft 511 kts 71°
2026-05-04 01:39 46.38450 60.43156 39103 ft 511 kts 71°
2026-05-04 01:39 46.40582 60.52964 39102 ft 510 kts 71°
2026-05-04 01:40 46.42707 60.62787 39102 ft 510 kts 71°
2026-05-04 01:40 46.44808 60.72542 39105 ft 510 kts 72°
2026-05-04 01:41 46.46915 60.82375 39105 ft 510 kts 72°
2026-05-04 01:41 46.49014 60.92217 39106 ft 510 kts 72°
2026-05-04 01:42 46.51101 61.02049 39107 ft 510 kts 72°
2026-05-04 01:42 46.53183 61.11902 39110 ft 510 kts 72°
2026-05-04 01:43 46.55256 61.21765 39114 ft 510 kts 72°
2026-05-04 01:43 46.57321 61.31635 39117 ft 510 kts 72°
2026-05-04 01:44 46.59379 61.41519 39115 ft 510 kts 72°
2026-05-04 01:44 46.61426 61.51402 39115 ft 511 kts 72°
2026-05-04 01:45 46.63465 61.61295 39118 ft 511 kts 72°
2026-05-04 01:45 46.66508 61.76148 39115 ft 511 kts 72°
2026-05-04 01:46 46.68528 61.86069 39118 ft 510 kts 72°
2026-05-04 01:46 46.70538 61.95988 39119 ft 510 kts 72°
2026-05-04 01:47 46.72538 62.05911 39127 ft 510 kts 72°
2026-05-04 01:47 46.74517 62.15778 39125 ft 510 kts 72°
2026-05-04 01:48 46.76495 62.25691 39127 ft 509 kts 72°
2026-05-04 01:48 46.78467 62.35623 39122 ft 509 kts 72°
2026-05-04 01:49 46.80430 62.45557 39129 ft 509 kts 72°
2026-05-04 01:49 46.82380 62.55480 39127 ft 508 kts 73°
2026-05-04 01:50 46.84318 62.65408 39131 ft 508 kts 73°
2026-05-04 01:50 46.86253 62.75343 39133 ft 508 kts 73°
2026-05-04 01:51 46.88174 62.85256 39137 ft 507 kts 73°
2026-05-04 01:51 46.90087 62.95182 39135 ft 507 kts 73°
2026-05-04 01:52 46.91990 63.05116 39138 ft 506 kts 73°
2026-05-04 01:52 46.93867 63.14962 39134 ft 505 kts 73°
2026-05-04 01:53 46.95746 63.24874 39144 ft 505 kts 73°
2026-05-04 01:53 46.97614 63.34774 39142 ft 505 kts 73°
2026-05-04 01:54 46.99472 63.44681 39143 ft 504 kts 73°
2026-05-04 01:54 47.01322 63.54590 39149 ft 504 kts 73°
2026-05-04 01:55 47.03161 63.64496 39142 ft 504 kts 73°
2026-05-04 01:55 47.04990 63.74401 39160 ft 504 kts 73°
2026-05-04 01:56 47.06812 63.84317 39167 ft 504 kts 73°
2026-05-04 01:56 47.08625 63.94243 39155 ft 503 kts 73°
2026-05-04 01:57 47.10431 64.04184 39174 ft 503 kts 73°
2026-05-04 01:57 47.12225 64.14108 39162 ft 503 kts 73°
2026-05-04 01:58 47.14010 64.24038 39170 ft 503 kts 73°
2026-05-04 01:58 47.15788 64.33987 39170 ft 503 kts 74°
2026-05-04 01:59 47.17554 64.43925 39171 ft 503 kts 74°
2026-05-04 01:59 47.19303 64.53814 39171 ft 502 kts 74°
2026-05-04 02:00 47.21058 64.63753 39178 ft 502 kts 74°
2026-05-04 02:00 47.22804 64.73706 39177 ft 502 kts 74°
2026-05-04 02:01 47.24538 64.83647 39179 ft 502 kts 74°
2026-05-04 02:01 47.26264 64.93595 39177 ft 502 kts 75°
2026-05-04 02:02 47.27982 65.03556 39177 ft 502 kts 75°
2026-05-04 02:02 47.29693 65.13524 39179 ft 502 kts 75°
2026-05-04 02:03 47.31393 65.23494 39180 ft 502 kts 75°
2026-05-04 02:03 47.33084 65.33464 39178 ft 502 kts 75°
2026-05-04 02:04 47.34770 65.43462 39180 ft 502 kts 75°
2026-05-04 02:04 47.36447 65.53462 39178 ft 502 kts 75°
2026-05-04 02:05 47.38105 65.63411 39186 ft 503 kts 75°
2026-05-04 02:05 47.39766 65.73433 39196 ft 503 kts 75°
2026-05-04 02:06 47.41420 65.83471 39189 ft 503 kts 75°
2026-05-04 02:06 47.43103 65.93507 39192 ft 503 kts 74°
2026-05-04 02:07 47.44827 66.03529 39197 ft 504 kts 74°
2026-05-04 02:07 47.46543 66.13564 39197 ft 504 kts 75°
2026-05-04 02:08 47.48244 66.23630 39195 ft 504 kts 75°
2026-05-04 02:08 47.49932 66.33706 39201 ft 505 kts 75°
2026-05-04 02:09 47.51611 66.43783 39203 ft 505 kts 75°
2026-05-04 02:09 47.53285 66.53892 39205 ft 506 kts 75°
2026-05-04 02:10 47.54950 66.64004 39211 ft 506 kts 75°
2026-05-04 02:10 47.56609 66.74139 39211 ft 506 kts 75°
2026-05-04 02:11 47.58216 66.84303 39213 ft 507 kts 75°
2026-05-04 02:11 47.59779 66.94429 39213 ft 508 kts 75°
2026-05-04 02:12 47.61359 67.04685 39217 ft 508 kts 75°
2026-05-04 02:12 47.62930 67.14909 39217 ft 508 kts 75°
2026-05-04 02:13 47.64494 67.25128 39214 ft 509 kts 75°
2026-05-04 02:13 47.66052 67.35372 39213 ft 509 kts 75°
2026-05-04 02:14 47.67600 67.45624 39216 ft 509 kts 76°
2026-05-04 02:14 47.69131 67.55830 39214 ft 510 kts 76°
2026-05-04 02:15 47.70661 67.66097 39213 ft 510 kts 76°
2026-05-04 02:15 47.72184 67.76376 39213 ft 510 kts 76°
2026-05-04 02:16 47.73408 67.86761 39208 ft 511 kts 81°
2026-05-04 02:16 47.74313 67.97238 39204 ft 511 kts 81°
2026-05-04 02:17 47.75236 68.07709 39204 ft 511 kts 81°
2026-05-04 02:17 47.76213 68.18174 39209 ft 511 kts 80°
2026-05-04 02:18 47.77203 68.28623 39209 ft 511 kts 80°
2026-05-04 02:18 47.78186 68.39077 39209 ft 510 kts 80°
2026-05-04 02:19 47.79156 68.49523 39211 ft 510 kts 81°
2026-05-04 02:19 47.80115 68.59978 39211 ft 510 kts 81°
2026-05-04 02:20 47.81063 68.70431 39210 ft 510 kts 81°
2026-05-04 02:20 47.81918 68.80898 39212 ft 510 kts 86°
2026-05-04 02:21 47.81929 68.91466 39209 ft 511 kts 90°
2026-05-04 02:21 47.81741 69.02028 39212 ft 511 kts 91°
2026-05-04 02:22 47.81519 69.12525 39210 ft 510 kts 91°
2026-05-04 02:22 47.81334 69.21355 39209 ft 510 kts 91°
2026-05-04 02:23 47.81079 69.33618 39206 ft 510 kts 91°
2026-05-04 02:23 47.80890 69.42445 39210 ft 510 kts 91°
2026-05-04 02:24 47.80656 69.52983 39206 ft 510 kts 91°
2026-05-04 02:24 47.80411 69.63529 39205 ft 509 kts 91°
2026-05-04 02:25 47.80156 69.74062 39204 ft 509 kts 91°
2026-05-04 02:25 47.79892 69.84581 39204 ft 509 kts 92°
2026-05-04 02:26 47.79620 69.95042 39204 ft 509 kts 92°
2026-05-04 02:26 47.79336 70.05564 39202 ft 509 kts 92°
2026-05-04 02:27 47.79043 70.16091 39202 ft 509 kts 92°
2026-05-04 02:27 47.78740 70.26608 39203 ft 509 kts 92°
2026-05-04 02:28 47.78428 70.37136 39200 ft 510 kts 92°
2026-05-04 02:28 47.78106 70.47658 39201 ft 510 kts 92°
2026-05-04 02:29 47.77774 70.58181 39202 ft 510 kts 93°
2026-05-04 02:29 47.77433 70.68712 39204 ft 510 kts 93°
2026-05-04 02:30 47.77081 70.79235 39202 ft 510 kts 93°
2026-05-04 02:30 47.76720 70.89775 39202 ft 510 kts 93°
2026-05-04 02:31 47.76350 71.00302 39202 ft 510 kts 93°
2026-05-04 02:31 47.75969 71.10848 39200 ft 510 kts 93°
2026-05-04 02:32 47.75579 71.21380 39201 ft 511 kts 93°
2026-05-04 02:32 47.75181 71.31851 39197 ft 511 kts 94°
2026-05-04 02:33 47.74771 71.42394 39196 ft 511 kts 94°
2026-05-04 02:33 47.74352 71.52936 39193 ft 511 kts 94°
2026-05-04 02:34 47.73921 71.63504 39191 ft 512 kts 94°
2026-05-04 02:34 47.73482 71.74047 39191 ft 512 kts 94°
2026-05-04 02:35 47.73032 71.84607 39194 ft 512 kts 94°
2026-05-04 02:35 47.72465 71.95155 39191 ft 513 kts 95°
2026-05-04 02:36 47.71822 72.05704 39191 ft 513 kts 95°
2026-05-04 02:36 47.71182 72.16248 39191 ft 513 kts 95°
2026-05-04 02:37 47.70549 72.26811 39195 ft 513 kts 95°
2026-05-04 02:37 47.69911 72.37370 39196 ft 513 kts 95°
2026-05-04 02:38 47.69265 72.47925 39195 ft 514 kts 95°
2026-05-04 02:38 47.68607 72.58474 39200 ft 514 kts 95°
2026-05-04 02:39 47.67939 72.69034 39201 ft 514 kts 96°
2026-05-04 02:39 47.67266 72.79511 39202 ft 514 kts 96°
2026-05-04 02:40 47.66578 72.90071 39202 ft 514 kts 96°
2026-05-04 02:40 47.65881 73.00616 39204 ft 514 kts 96°
2026-05-04 02:41 47.65174 73.11174 39205 ft 514 kts 96°
2026-05-04 02:41 47.64457 73.21723 39204 ft 514 kts 96°
2026-05-04 02:42 47.63729 73.32286 39208 ft 514 kts 96°
2026-05-04 02:42 47.62992 73.42847 39207 ft 515 kts 96°
2026-05-04 02:43 47.62245 73.53405 39206 ft 515 kts 96°
2026-05-04 02:43 47.61488 73.63956 39210 ft 515 kts 96°
2026-05-04 02:44 47.60721 73.74514 39208 ft 515 kts 96°
2026-05-04 02:44 47.59945 73.85070 39209 ft 515 kts 96°
2026-05-04 02:45 47.59158 73.95631 39207 ft 516 kts 97°
2026-05-04 02:45 47.58366 74.06122 39211 ft 516 kts 97°
2026-05-04 02:46 47.57560 74.16674 39212 ft 516 kts 97°
2026-05-04 02:46 47.56743 74.27236 39215 ft 516 kts 97°
2026-05-04 02:47 47.55917 74.37794 39213 ft 516 kts 97°
2026-05-04 02:47 47.55081 74.48341 39214 ft 516 kts 97°
2026-05-04 02:48 47.54233 74.58919 39218 ft 517 kts 97°
2026-05-04 02:48 47.53377 74.69481 39215 ft 517 kts 97°
2026-05-04 02:49 47.52511 74.80031 39214 ft 517 kts 97°
2026-05-04 02:49 47.51634 74.90596 39214 ft 517 kts 97°
2026-05-04 02:50 47.50749 75.01145 39211 ft 517 kts 97°
2026-05-04 02:50 47.49853 75.11702 39212 ft 517 kts 98°
2026-05-04 02:51 47.48948 75.22243 39212 ft 517 kts 98°
2026-05-04 02:51 47.48032 75.32800 39207 ft 517 kts 98°
2026-05-04 02:52 47.47106 75.43349 39206 ft 517 kts 98°
2026-05-04 02:52 47.46178 75.53819 39203 ft 517 kts 98°
2026-05-04 02:53 47.45233 75.64362 39205 ft 518 kts 98°
2026-05-04 02:53 47.44280 75.74882 39200 ft 517 kts 98°
2026-05-04 02:54 47.43315 75.85426 39197 ft 517 kts 98°
2026-05-04 02:54 47.42341 75.95966 39192 ft 517 kts 98°
2026-05-04 02:55 47.40863 76.11746 39189 ft 517 kts 99°
2026-05-04 02:56 47.39865 76.22263 39188 ft 517 kts 99°
2026-05-04 02:56 47.38859 76.32769 39187 ft 517 kts 99°
2026-05-04 02:57 47.37843 76.43278 39182 ft 517 kts 99°
2026-05-04 02:57 47.36818 76.53767 39182 ft 517 kts 99°
2026-05-04 02:58 47.35782 76.64263 39176 ft 517 kts 99°
2026-05-04 02:58 47.34737 76.74755 39174 ft 517 kts 99°
2026-05-04 02:59 47.33679 76.85277 39170 ft 518 kts 99°
2026-05-04 02:59 47.32613 76.95774 39170 ft 518 kts 99°
2026-05-04 03:00 47.31544 77.06212 39166 ft 519 kts 99°
2026-05-04 03:00 47.30792 77.16804 39165 ft 520 kts 95°
2026-05-04 03:01 47.30355 77.27431 39164 ft 520 kts 94°
2026-05-04 03:01 47.29875 77.38078 39162 ft 520 kts 95°
2026-05-04 03:02 47.29319 77.48710 39158 ft 520 kts 95°
2026-05-04 03:02 47.28727 77.59324 39159 ft 520 kts 95°
2026-05-04 03:03 47.28123 77.69945 39156 ft 520 kts 95°
2026-05-04 03:03 47.27512 77.80566 39156 ft 520 kts 95°
2026-05-04 03:04 47.26894 77.91178 39154 ft 520 kts 95°
2026-05-04 03:04 47.26266 78.01792 39153 ft 520 kts 96°
2026-05-04 03:05 47.25628 78.12400 39154 ft 520 kts 96°
2026-05-04 03:05 47.24983 78.22952 39150 ft 520 kts 96°
2026-05-04 03:06 47.24321 78.33626 39146 ft 520 kts 96°
2026-05-04 03:06 47.23659 78.44141 39141 ft 520 kts 96°
2026-05-04 03:07 47.22982 78.54741 39144 ft 520 kts 96°
2026-05-04 03:07 47.22296 78.65314 39140 ft 519 kts 96°
2026-05-04 03:08 47.21600 78.75895 39141 ft 519 kts 96°
2026-05-04 03:08 47.20895 78.86460 39137 ft 519 kts 96°
2026-05-04 03:09 47.20182 78.97010 39133 ft 519 kts 96°
2026-05-04 03:09 47.19459 79.07555 39129 ft 518 kts 96°
2026-05-04 03:10 47.18727 79.18103 39127 ft 519 kts 96°
2026-05-04 03:10 47.18097 79.26871 39128 ft 519 kts 97°
2026-05-04 03:11 47.17189 79.39121 39122 ft 519 kts 97°
2026-05-04 03:11 47.16399 79.49673 39117 ft 519 kts 97°
2026-05-04 03:12 47.15733 79.58495 39116 ft 519 kts 97°
2026-05-04 03:12 47.14930 79.69050 39114 ft 520 kts 97°
2026-05-04 03:13 47.14117 79.79606 39102 ft 520 kts 97°
2026-05-04 03:13 47.13297 79.90166 39097 ft 521 kts 97°
2026-05-04 03:14 47.12488 80.00739 39087 ft 521 kts 97°
2026-05-04 03:14 47.11677 80.11237 39082 ft 522 kts 97°
2026-05-04 03:15 47.10848 80.21828 39071 ft 522 kts 97°
2026-05-04 03:15 47.10007 80.32417 39063 ft 523 kts 98°
2026-05-04 03:16 47.09157 80.43003 39052 ft 523 kts 98°
2026-05-04 03:16 47.08295 80.53607 39045 ft 524 kts 98°
2026-05-04 03:17 47.07422 80.64220 39036 ft 524 kts 98°
2026-05-04 03:17 47.06539 80.74833 39032 ft 524 kts 98°
2026-05-04 03:18 47.05645 80.85462 39027 ft 525 kts 98°
2026-05-04 03:18 47.04741 80.96081 39024 ft 525 kts 98°
2026-05-04 03:19 47.03826 81.06699 39023 ft 525 kts 98°
2026-05-04 03:19 47.02901 81.17329 39018 ft 526 kts 98°
2026-05-04 03:20 47.01968 81.27963 39015 ft 526 kts 98°
2026-05-04 03:20 47.01024 81.38586 39013 ft 526 kts 98°
2026-05-04 03:21 47.00070 81.49210 39010 ft 526 kts 99°
2026-05-04 03:21 46.99107 81.59827 39011 ft 526 kts 99°
2026-05-04 03:22 46.98133 81.70448 39008 ft 526 kts 99°
2026-05-04 03:22 46.97147 81.81077 39008 ft 526 kts 99°
2026-05-04 03:23 46.96154 81.91686 39012 ft 526 kts 99°
2026-05-04 03:23 46.95149 82.02302 39011 ft 526 kts 99°
2026-05-04 03:24 46.94124 82.12908 39011 ft 526 kts 99°
2026-05-04 03:24 46.93097 82.23424 39011 ft 526 kts 99°
2026-05-04 03:25 46.92054 82.34023 39012 ft 526 kts 100°
2026-05-04 03:25 46.91002 82.44621 39008 ft 526 kts 100°
2026-05-04 03:26 46.89941 82.55213 39020 ft 526 kts 100°
2026-05-04 03:26 46.88872 82.65792 39006 ft 526 kts 100°
2026-05-04 03:27 46.87789 82.76394 39000 ft 527 kts 100°
2026-05-04 03:27 46.86428 82.86880 39014 ft 524 kts 110°
2026-05-04 03:28 46.83341 82.96382 38995 ft 517 kts 124°
2026-05-04 03:28 46.79565 83.05307 38998 ft 516 kts 126°
2026-05-04 03:29 46.75696 83.14136 38993 ft 516 kts 126°
2026-05-04 03:29 46.71846 83.22962 38990 ft 516 kts 126°
2026-05-04 03:30 46.68010 83.31804 38994 ft 516 kts 126°
2026-05-04 03:30 46.64143 83.40609 38992 ft 515 kts 128°
2026-05-04 03:31 46.59934 83.49024 38990 ft 514 kts 131°
2026-05-04 03:31 46.55628 83.57316 38990 ft 514 kts 130°
2026-05-04 03:32 46.51359 83.65653 38991 ft 515 kts 130°
2026-05-04 03:32 46.47113 83.74031 38987 ft 515 kts 130°
2026-05-04 03:33 46.42871 83.82409 38989 ft 515 kts 130°
2026-05-04 03:33 46.38622 83.90773 38989 ft 516 kts 130°
2026-05-04 03:34 46.34384 83.99084 38991 ft 516 kts 130°
2026-05-04 03:34 46.30111 84.07435 38988 ft 516 kts 130°
2026-05-04 03:35 46.25833 84.15774 38981 ft 517 kts 130°
2026-05-04 03:35 46.21531 84.24099 38971 ft 517 kts 131°
2026-05-04 03:36 46.17220 84.32383 38956 ft 517 kts 131°
2026-05-04 03:36 46.12897 84.40671 38949 ft 517 kts 131°
2026-05-04 03:37 46.08573 84.48945 38937 ft 517 kts 131°
2026-05-04 03:37 46.04234 84.57225 38925 ft 518 kts 131°
2026-05-04 03:38 45.99893 84.65486 38920 ft 518 kts 131°
2026-05-04 03:38 45.95533 84.73758 38917 ft 518 kts 131°
2026-05-04 03:39 45.91175 84.82003 38913 ft 518 kts 131°
2026-05-04 03:39 45.86807 84.90242 38905 ft 519 kts 131°
2026-05-04 03:40 45.82460 84.98416 38901 ft 519 kts 131°
2026-05-04 03:40 45.78073 85.06641 38899 ft 519 kts 131°
2026-05-04 03:41 45.73678 85.14859 38897 ft 520 kts 131°
2026-05-04 03:41 45.69278 85.23064 38894 ft 520 kts 131°
2026-05-04 03:42 45.64888 85.31286 38891 ft 520 kts 131°
2026-05-04 03:42 45.60494 85.39508 38896 ft 521 kts 131°
2026-05-04 03:43 45.56090 85.47722 38892 ft 521 kts 132°
2026-05-04 03:43 45.51676 85.55927 38892 ft 521 kts 132°
2026-05-04 03:44 45.47258 85.64112 38896 ft 521 kts 132°
2026-05-04 03:44 45.42830 85.72295 38895 ft 521 kts 132°
2026-05-04 03:45 45.38394 85.80468 38899 ft 522 kts 132°
2026-05-04 03:45 45.33950 85.88632 38906 ft 522 kts 132°
2026-05-04 03:46 45.29529 85.96729 38900 ft 522 kts 132°
2026-05-04 03:46 45.25039 86.04929 38899 ft 523 kts 132°
2026-05-04 03:47 45.20596 86.13022 38902 ft 523 kts 132°
2026-05-04 03:47 45.16114 86.21162 38903 ft 524 kts 133°
2026-05-04 03:48 45.11635 86.29273 38904 ft 524 kts 133°
2026-05-04 03:48 45.07127 86.37413 38900 ft 525 kts 133°
2026-05-04 03:49 45.02612 86.45541 38906 ft 525 kts 133°
2026-05-04 03:49 44.98091 86.53659 38907 ft 526 kts 133°
2026-05-04 03:50 44.93563 86.61766 38913 ft 526 kts 133°
2026-05-04 03:50 44.89024 86.69870 38911 ft 527 kts 133°
2026-05-04 03:51 44.84474 86.77971 38914 ft 527 kts 133°
2026-05-04 03:51 44.79898 86.86052 38914 ft 527 kts 134°
2026-05-04 03:52 44.75271 86.94050 38914 ft 527 kts 134°
2026-05-04 03:52 44.70629 87.02044 38915 ft 528 kts 134°
2026-05-04 03:53 44.65991 87.10064 38917 ft 528 kts 134°
2026-05-04 03:53 44.61355 87.18078 38914 ft 529 kts 134°
2026-05-04 03:54 44.56737 87.26039 38916 ft 529 kts 134°
2026-05-04 03:54 44.52132 87.34098 38918 ft 531 kts 132°
2026-05-04 03:55 44.47670 87.42345 38921 ft 532 kts 131°
2026-05-04 03:55 44.43210 87.50612 38919 ft 532 kts 131°
2026-05-04 03:56 44.38721 87.58837 38915 ft 532 kts 132°
2026-05-04 03:56 44.34204 87.67051 38915 ft 533 kts 132°
2026-05-04 03:57 44.29712 87.75289 38924 ft 534 kts 131°
2026-05-04 03:57 44.25258 87.83605 38913 ft 535 kts 131°
2026-05-04 03:58 44.20100 87.95427 38931 ft 544 kts 112°
2026-05-04 03:58 44.19098 88.00526 38933 ft 547 kts 101°
2026-05-04 03:58 44.18794 88.05810 38935 ft 548 kts 88°
2026-05-04 03:59 44.19875 88.16292 38941 ft 547 kts 77°
2026-05-04 03:59 44.21474 88.26678 38932 ft 548 kts 76°
2026-05-04 04:00 44.23090 88.37067 38943 ft 548 kts 76°
2026-05-04 04:00 44.24646 88.47473 38927 ft 548 kts 76°
2026-05-04 04:01 44.26164 88.57879 38924 ft 548 kts 77°
2026-05-04 04:01 44.27669 88.68309 38918 ft 547 kts 77°
2026-05-04 04:02 44.29164 88.78719 38913 ft 547 kts 77°
2026-05-04 04:02 44.30648 88.89118 38906 ft 546 kts 77°
2026-05-04 04:03 44.32115 88.99466 38897 ft 546 kts 77°
2026-05-04 04:03 44.33589 89.09935 38902 ft 545 kts 77°
2026-05-04 04:04 44.35042 89.20324 38891 ft 545 kts 77°
2026-05-04 04:04 44.36474 89.30641 38889 ft 545 kts 77°
2026-05-04 04:05 44.37918 89.41108 38883 ft 544 kts 77°
2026-05-04 04:05 44.39341 89.51499 38883 ft 544 kts 77°
2026-05-04 04:06 44.40733 89.61819 38879 ft 544 kts 78°
2026-05-04 04:06 44.40841 89.72375 38883 ft 546 kts 99°
2026-05-04 04:07 44.38987 89.82717 38874 ft 545 kts 107°
2026-05-04 04:07 44.36770 89.92776 38878 ft 545 kts 108°
2026-05-04 04:08 44.34501 90.02872 38877 ft 545 kts 108°
2026-05-04 04:08 44.32257 90.12989 38878 ft 545 kts 108°
2026-05-04 04:09 44.30030 90.23094 38879 ft 544 kts 108°
2026-05-04 04:09 44.27801 90.33180 38882 ft 544 kts 108°
2026-05-04 04:10 44.25562 90.43260 38878 ft 544 kts 108°
2026-05-04 04:10 44.23314 90.53328 38879 ft 543 kts 108°
2026-05-04 04:11 44.21058 90.63384 38878 ft 543 kts 108°
2026-05-04 04:11 44.18793 90.73428 38878 ft 543 kts 108°
2026-05-04 04:12 44.16522 90.83454 38877 ft 542 kts 108°
2026-05-04 04:12 44.14244 90.93463 38880 ft 542 kts 108°
2026-05-04 04:13 44.11960 91.03459 38887 ft 542 kts 108°
2026-05-04 04:13 44.09689 91.13376 38882 ft 541 kts 108°
2026-05-04 04:14 44.07389 91.23348 38878 ft 541 kts 108°
2026-05-04 04:14 44.05083 91.33299 38885 ft 540 kts 108°
2026-05-04 04:15 44.02773 91.43231 38887 ft 540 kts 108°
2026-05-04 04:15 44.00444 91.53156 38898 ft 540 kts 108°
2026-05-04 04:16 43.98090 91.63059 38892 ft 540 kts 108°
2026-05-04 04:16 43.95732 91.72937 38893 ft 540 kts 108°
2026-05-04 04:17 43.93368 91.82823 38897 ft 539 kts 108°
2026-05-04 04:17 43.91002 91.92679 38903 ft 538 kts 108°
2026-05-04 04:18 43.88627 92.02527 38897 ft 538 kts 108°
2026-05-04 04:18 43.86249 92.12348 38901 ft 537 kts 108°
2026-05-04 04:19 43.83868 92.22137 38892 ft 536 kts 108°
2026-05-04 04:19 43.81479 92.31917 38897 ft 535 kts 108°
2026-05-04 04:20 43.79085 92.41669 38894 ft 534 kts 108°
2026-05-04 04:20 43.76688 92.51401 38894 ft 534 kts 108°
2026-05-04 04:21 43.74287 92.61106 38888 ft 533 kts 108°
2026-05-04 04:21 43.71882 92.70784 38887 ft 533 kts 109°
2026-05-04 04:22 43.69467 92.80461 38885 ft 532 kts 109°
2026-05-04 04:22 43.67047 92.90119 38888 ft 532 kts 109°
2026-05-04 04:23 43.64619 92.99771 38892 ft 532 kts 109°
2026-05-04 04:23 43.62274 93.09452 38901 ft 531 kts 107°
2026-05-04 04:24 43.59981 93.19143 38903 ft 530 kts 107°
2026-05-04 04:24 43.57679 93.28792 38911 ft 530 kts 108°
2026-05-04 04:25 43.55353 93.38438 38904 ft 529 kts 108°
2026-05-04 04:25 43.53020 93.48053 38904 ft 529 kts 108°
2026-05-04 04:26 43.50679 93.57653 38901 ft 528 kts 108°
2026-05-04 04:26 43.48332 93.67246 38904 ft 528 kts 108°
2026-05-04 04:27 43.45978 93.76826 38904 ft 528 kts 108°
2026-05-04 04:27 43.43618 93.86399 38905 ft 530 kts 109°
2026-05-04 04:28 43.41222 93.96069 38900 ft 536 kts 109°
2026-05-04 04:28 43.38813 94.05745 38902 ft 534 kts 109°
2026-05-04 04:29 43.36416 94.15337 38899 ft 534 kts 109°
2026-05-04 04:29 43.33995 94.24984 38896 ft 534 kts 109°
2026-05-04 04:30 43.31571 94.34606 38888 ft 533 kts 109°
2026-05-04 04:30 43.29138 94.44223 38884 ft 533 kts 109°
2026-05-04 04:31 43.26695 94.53841 38878 ft 533 kts 109°
2026-05-04 04:31 43.24249 94.63433 38870 ft 533 kts 109°
2026-05-04 04:32 43.21794 94.73020 38860 ft 532 kts 109°
2026-05-04 04:32 43.19332 94.82592 38843 ft 532 kts 109°
2026-05-04 04:33 43.16861 94.92161 38833 ft 532 kts 109°
2026-05-04 04:33 43.14296 95.01655 38822 ft 532 kts 115°
2026-05-04 04:34 43.10251 95.10045 38811 ft 528 kts 136°
2026-05-04 04:34 43.04580 95.16306 38799 ft 523 kts 148°
2026-05-04 04:35 42.98544 95.21894 38796 ft 524 kts 149°
2026-05-04 04:35 42.92478 95.27414 38792 ft 524 kts 149°
2026-05-04 04:36 42.86430 95.32972 38785 ft 524 kts 148°
2026-05-04 04:36 42.80430 95.38514 38780 ft 524 kts 148°
2026-05-04 04:37 42.68353 95.49651 38774 ft 525 kts 148°
2026-05-04 04:38 42.62300 95.55210 38769 ft 525 kts 148°
2026-05-04 04:38 42.56245 95.60757 38767 ft 525 kts 148°
2026-05-04 04:39 42.50183 95.66296 38770 ft 525 kts 148°
2026-05-04 04:39 42.44124 95.71820 38771 ft 525 kts 148°
2026-05-04 04:40 42.38057 95.77341 38780 ft 525 kts 148°
2026-05-04 04:40 42.32014 95.82919 38783 ft 526 kts 148°
2026-05-04 04:41 42.25991 95.88519 38790 ft 526 kts 148°
2026-05-04 04:41 42.19956 95.94109 38800 ft 526 kts 148°
2026-05-04 04:42 42.13916 95.99678 38808 ft 526 kts 148°
2026-05-04 04:42 42.08888 96.04300 38814 ft 526 kts 148°
2026-05-04 04:43 42.02833 96.09852 38817 ft 526 kts 148°
2026-05-04 04:43 41.96798 96.15408 38814 ft 527 kts 146°
2026-05-04 04:44 41.91581 96.22311 38823 ft 529 kts 126°
2026-05-04 04:44 41.89696 96.26539 38824 ft 529 kts 114°
2026-05-04 04:44 41.88418 96.31151 38826 ft 527 kts 103°
2026-05-04 04:45 41.87792 96.35972 38815 ft 523 kts 91°
2026-05-04 04:45 41.87755 96.40833 38821 ft 521 kts 85°
2026-05-04 04:47 41.89322 96.74815 38801 ft 521 kts 84°
2026-05-04 04:47 41.89719 96.84542 38795 ft 521 kts 84°
2026-05-04 04:48 41.90101 96.94191 38794 ft 521 kts 84°
2026-05-04 04:49 41.91033 97.18458 38790 ft 520 kts 84°
2026-05-04 04:49 41.91392 97.28154 38785 ft 520 kts 84°
2026-05-04 04:50 41.91743 97.37840 38780 ft 520 kts 84°
2026-05-04 04:50 41.92086 97.47538 38782 ft 519 kts 84°
2026-05-04 04:51 41.92420 97.57220 38778 ft 519 kts 84°
2026-05-04 04:51 41.92746 97.66907 38777 ft 519 kts 84°
2026-05-04 04:52 41.93063 97.76580 38776 ft 519 kts 85°
2026-05-04 04:52 41.93373 97.86272 38775 ft 519 kts 85°
2026-05-04 04:53 41.93673 97.95938 38773 ft 519 kts 85°
2026-05-04 04:53 41.93966 98.05622 38776 ft 518 kts 85°
2026-05-04 04:54 41.94251 98.15301 38765 ft 518 kts 85°
2026-05-04 04:54 41.94527 98.24968 38770 ft 518 kts 85°
2026-05-04 04:55 41.94796 98.34639 38773 ft 518 kts 85°
2026-05-04 04:55 41.95054 98.44258 38763 ft 518 kts 85°
2026-05-04 04:56 41.95307 98.53922 38761 ft 518 kts 85°
2026-05-04 04:56 41.95551 98.63595 38761 ft 518 kts 85°
2026-05-04 04:57 41.95786 98.73266 38768 ft 518 kts 85°
2026-05-04 04:57 41.96014 98.82937 38757 ft 518 kts 85°
2026-05-04 04:58 41.96233 98.92606 38757 ft 518 kts 85°
2026-05-04 04:58 41.96445 99.02293 38748 ft 518 kts 85°
2026-05-04 04:59 41.96649 99.11978 38755 ft 518 kts 85°
2026-05-04 04:59 41.96844 99.21662 38751 ft 519 kts 85°
2026-05-04 05:00 41.97032 99.31354 38747 ft 519 kts 85°
2026-05-04 05:01 41.97297 99.45887 38747 ft 518 kts 85°
2026-05-04 05:01 41.97464 99.55568 38748 ft 518 kts 86°
2026-05-04 05:02 41.97623 99.65255 38747 ft 518 kts 86°
2026-05-04 05:02 41.97772 99.74863 38747 ft 518 kts 86°
2026-05-04 05:03 41.97915 99.84542 38748 ft 518 kts 86°
2026-05-04 05:04 41.98174 100.03872 38744 ft 517 kts 86°
2026-05-04 05:04 41.98292 100.13529 38744 ft 517 kts 86°
2026-05-04 05:06 41.98682 100.52104 38749 ft 515 kts 86°
2026-05-04 05:07 41.98759 100.61722 38753 ft 514 kts 86°
2026-05-04 05:07 41.98828 100.71335 38750 ft 514 kts 86°
2026-05-04 05:09 41.97720 101.09601 38762 ft 518 kts 106°
2026-05-04 05:09 41.96587 101.14197 38748 ft 519 kts 108°
2026-05-04 05:10 41.94115 101.23307 38747 ft 519 kts 109°
2026-05-04 05:10 41.91598 101.32325 38746 ft 519 kts 109°
2026-05-04 05:11 41.89069 101.41461 38747 ft 519 kts 109°
2026-05-04 05:11 41.86588 101.50472 38751 ft 518 kts 109°
2026-05-04 05:12 41.84089 101.59537 38757 ft 518 kts 109°
2026-05-04 05:12 41.81599 101.68536 38760 ft 518 kts 109°
2026-05-04 05:13 41.79083 101.77593 38760 ft 518 kts 109°
2026-05-04 05:13 41.76565 101.86621 38756 ft 518 kts 109°
2026-05-04 05:14 41.74040 101.95644 38759 ft 517 kts 109°
2026-05-04 05:14 41.71508 102.04659 38751 ft 517 kts 109°
2026-05-04 05:15 41.68969 102.13663 38758 ft 517 kts 109°
2026-05-04 05:15 41.66425 102.22657 38754 ft 517 kts 109°
2026-05-04 05:16 41.63876 102.31637 38757 ft 516 kts 109°
2026-05-04 05:16 41.61322 102.40600 38756 ft 516 kts 109°
2026-05-04 05:17 41.58758 102.49568 38757 ft 516 kts 109°
2026-05-04 05:17 41.56191 102.58514 38756 ft 516 kts 109°
2026-05-04 05:18 41.53615 102.67465 38755 ft 516 kts 109°
2026-05-04 05:18 41.51073 102.76414 38758 ft 515 kts 108°
2026-05-04 05:19 41.48659 102.85401 38759 ft 515 kts 107°
2026-05-04 05:19 41.46356 102.94446 38758 ft 515 kts 107°
2026-05-04 05:20 41.44042 103.03459 38760 ft 515 kts 108°
2026-05-04 05:20 41.41564 103.12422 38759 ft 515 kts 109°
2026-05-04 05:21 41.39044 103.21343 38759 ft 515 kts 109°
2026-05-04 05:21 41.36533 103.30276 38762 ft 515 kts 109°
2026-05-04 05:22 41.34046 103.39148 38762 ft 515 kts 109°
2026-05-04 05:22 41.31543 103.48064 38762 ft 514 kts 109°
2026-05-04 05:23 41.29034 103.56966 38761 ft 514 kts 109°
2026-05-04 05:23 41.26517 103.65864 38757 ft 514 kts 109°
2026-05-04 05:24 41.23990 103.74763 38764 ft 514 kts 109°
2026-05-04 05:24 41.21458 103.83650 38764 ft 514 kts 109°
2026-05-04 05:25 41.18920 103.92529 38761 ft 514 kts 109°
2026-05-04 05:25 41.16378 104.01390 38766 ft 514 kts 109°
2026-05-04 05:26 41.13826 104.10252 38770 ft 514 kts 109°
2026-05-04 05:26 41.11273 104.19091 38771 ft 514 kts 109°
2026-05-04 05:28 41.01033 104.54438 38782 ft 513 kts 108°
2026-05-04 05:29 40.98596 104.63308 38783 ft 513 kts 108°
2026-05-04 05:29 40.96568 104.70676 38788 ft 513 kts 108°
2026-05-04 05:31 40.86647 105.06051 38795 ft 513 kts 109°
2026-05-04 05:32 40.84150 105.14867 38797 ft 513 kts 109°
2026-05-04 05:33 40.80387 105.28097 38799 ft 513 kts 109°
2026-05-04 05:33 40.77871 105.36903 38801 ft 513 kts 109°
2026-05-04 05:34 40.75348 105.45708 38806 ft 513 kts 109°
2026-05-04 05:34 40.72822 105.54492 38808 ft 513 kts 109°
2026-05-04 05:35 40.70283 105.63291 38812 ft 513 kts 109°
2026-05-04 05:35 40.67742 105.72066 38817 ft 513 kts 109°
2026-05-04 05:36 40.65208 105.80788 38821 ft 513 kts 109°
2026-05-04 05:36 40.62653 105.89552 38823 ft 513 kts 109°
2026-05-04 05:37 40.60073 105.98376 38823 ft 513 kts 109°
2026-05-04 05:37 40.57518 106.07080 38826 ft 513 kts 109°
2026-05-04 05:38 40.53652 106.20198 38817 ft 513 kts 109°
2026-05-04 05:38 40.51066 106.28938 38820 ft 513 kts 110°
2026-05-04 05:39 40.47171 106.42046 38810 ft 513 kts 110°
2026-05-04 05:40 40.43264 106.55133 38805 ft 514 kts 110°
2026-05-04 05:40 40.40645 106.63865 38803 ft 514 kts 110°
2026-05-04 05:41 40.38021 106.72589 38804 ft 514 kts 110°
2026-05-04 05:41 40.35408 106.81248 38793 ft 513 kts 110°
2026-05-04 05:42 40.32782 106.89946 38794 ft 513 kts 109°
2026-05-04 05:42 40.31212 106.98995 38803 ft 507 kts 91°
2026-05-04 05:43 40.31359 107.08191 38805 ft 505 kts 84°
2026-05-04 05:45 40.33305 107.44912 38795 ft 505 kts 83°
2026-05-04 05:47 40.35027 107.81724 38800 ft 506 kts 84°
2026-05-04 05:47 40.35441 107.90935 38804 ft 506 kts 84°
2026-05-04 05:48 40.35847 108.00142 38802 ft 506 kts 84°
2026-05-04 05:48 40.36236 108.09368 38805 ft 506 kts 84°
2026-05-04 05:49 40.36596 108.18596 38806 ft 507 kts 84°
2026-05-04 05:49 40.36950 108.27829 38805 ft 507 kts 84°
2026-05-04 05:51 40.38318 108.64775 38807 ft 507 kts 84°
2026-05-04 05:52 40.38642 108.74024 38810 ft 507 kts 84°
2026-05-04 05:52 40.38957 108.83265 38807 ft 508 kts 85°
2026-05-04 05:54 40.40149 109.20271 38817 ft 508 kts 85°
2026-05-04 05:55 40.40428 109.29476 38820 ft 508 kts 85°
2026-05-04 05:55 40.40700 109.38733 38822 ft 508 kts 85°
2026-05-04 05:56 40.40965 109.47990 38823 ft 508 kts 85°
2026-05-04 05:56 40.41223 109.57249 38823 ft 508 kts 85°
2026-05-04 05:57 40.41473 109.66506 38829 ft 508 kts 85°
2026-05-04 05:57 40.41716 109.75760 38832 ft 508 kts 85°
2026-05-04 05:58 40.41952 109.85024 38837 ft 508 kts 85°
2026-05-04 05:58 40.42180 109.94288 38843 ft 508 kts 85°
2026-05-04 05:59 40.42343 110.03559 38850 ft 509 kts 88°
2026-05-04 05:59 40.42268 110.12857 38848 ft 509 kts 88°
2026-05-04 06:00 40.42160 110.22144 38853 ft 509 kts 88°
2026-05-04 06:00 40.42084 110.31437 38862 ft 509 kts 88°
2026-05-04 06:01 40.42014 110.40674 38863 ft 509 kts 88°
2026-05-04 06:03 40.41675 110.77884 38883 ft 510 kts 88°
2026-05-04 06:05 40.41149 111.19818 38884 ft 511 kts 88°
2026-05-04 06:06 40.41012 111.29152 38897 ft 511 kts 88°
2026-05-04 06:06 40.40871 111.38477 38898 ft 511 kts 88°
2026-05-04 06:07 40.40713 111.47808 38900 ft 512 kts 89°
2026-05-04 06:07 40.40549 111.57152 38902 ft 512 kts 89°
2026-05-04 06:08 40.40379 111.66487 38914 ft 512 kts 89°
2026-05-04 06:08 40.40203 111.75825 38916 ft 512 kts 89°
2026-05-04 06:09 40.40018 111.85170 38902 ft 512 kts 89°
2026-05-04 06:11 40.22052 112.06556 38916 ft 497 kts 200°
2026-05-04 06:11 40.18907 112.04795 38919 ft 488 kts 216°
2026-05-04 06:13 39.96702 112.07450 38930 ft 519 kts 147°
2026-05-04 06:14 39.76117 112.13687 38944 ft 513 kts 173°
2026-05-04 06:14 39.72593 112.14460 38946 ft 513 kts 173°
2026-05-04 06:15 39.66748 112.15824 38945 ft 513 kts 172°
2026-05-04 06:15 39.59726 112.17524 38942 ft 514 kts 172°
2026-05-04 06:16 39.52698 112.19232 38947 ft 513 kts 172°
2026-05-04 06:16 39.45684 112.20940 38949 ft 513 kts 172°
2026-05-04 06:17 39.38669 112.22662 38948 ft 513 kts 172°
2026-05-04 06:17 39.31652 112.24380 38955 ft 513 kts 172°
2026-05-04 06:18 39.24643 112.26093 38948 ft 512 kts 172°
2026-05-04 06:20 38.96614 112.32904 38963 ft 512 kts 172°
2026-05-04 06:21 38.79099 112.37132 38956 ft 512 kts 172°
2026-05-04 06:22 38.72090 112.38818 38963 ft 512 kts 172°
2026-05-04 06:25 38.23160 112.50497 38944 ft 510 kts 172°
2026-05-04 06:26 38.16186 112.52148 38942 ft 510 kts 172°
2026-05-04 06:26 38.09214 112.53796 38945 ft 509 kts 172°
2026-05-04 06:27 37.91793 112.57900 38959 ft 509 kts 172°
2026-05-04 06:28 37.84823 112.59546 38963 ft 509 kts 172°
2026-05-04 06:28 37.77871 112.61241 38965 ft 509 kts 172°
2026-05-04 06:29 37.70929 112.63052 38966 ft 510 kts 169°
2026-05-04 06:29 37.64055 112.65362 38965 ft 511 kts 167°
2026-05-04 06:30 37.57206 112.67763 38960 ft 511 kts 167°
2026-05-04 06:30 37.50393 112.70098 38959 ft 511 kts 167°
2026-05-04 06:31 37.43530 112.72398 38958 ft 511 kts 168°
2026-05-04 06:31 37.36652 112.74684 38961 ft 511 kts 168°
2026-05-04 06:33 37.09175 112.83783 38972 ft 510 kts 168°
2026-05-04 06:34 37.02310 112.86055 38977 ft 510 kts 168°
2026-05-04 06:34 36.95441 112.88329 38975 ft 510 kts 168°
2026-05-04 06:36 36.67972 112.97367 38977 ft 510 kts 168°
2026-05-04 06:37 36.61116 112.99603 38978 ft 510 kts 168°
2026-05-04 06:37 36.54293 113.01827 38978 ft 510 kts 168°
2026-05-04 06:38 36.47433 113.04061 38976 ft 510 kts 168°
2026-05-04 06:40 36.20075 113.13423 39001 ft 512 kts 164°
2026-05-04 06:40 36.13376 113.16407 39011 ft 512 kts 163°
2026-05-04 06:41 36.06691 113.19428 39008 ft 511 kts 163°
2026-05-04 06:41 36.00002 113.22440 39018 ft 511 kts 163°
2026-05-04 06:42 35.93318 113.25433 39019 ft 511 kts 163°
2026-05-04 06:44 35.66638 113.37349 39036 ft 510 kts 163°
2026-05-04 06:44 35.59914 113.40344 39035 ft 511 kts 163°
2026-05-04 06:45 35.53282 113.43293 39031 ft 510 kts 164°
2026-05-04 06:45 35.46598 113.46248 39025 ft 510 kts 164°
2026-05-04 06:46 35.39918 113.49212 39023 ft 511 kts 163°
2026-05-04 06:46 35.33241 113.52184 39018 ft 511 kts 164°
2026-05-04 06:48 35.06500 113.64035 39005 ft 511 kts 164°
2026-05-04 06:50 34.79647 113.75459 39011 ft 508 kts 169°
2026-05-04 06:51 34.72797 113.77568 39014 ft 508 kts 171°
2026-05-04 06:51 34.65951 113.79700 39019 ft 508 kts 170°
2026-05-04 06:52 34.59113 113.81920 39021 ft 508 kts 169°
2026-05-04 06:52 34.52295 113.84170 39018 ft 508 kts 169°
2026-05-04 06:53 34.45469 113.86389 39017 ft 507 kts 170°
2026-05-04 06:53 34.38640 113.88530 39020 ft 507 kts 171°
2026-05-04 06:54 34.31858 113.90653 39015 ft 507 kts 171°
2026-05-04 06:54 34.24998 113.92809 39012 ft 507 kts 171°
2026-05-04 06:55 34.18220 113.94942 39010 ft 506 kts 171°
2026-05-04 06:55 34.11399 113.97086 39009 ft 506 kts 171°
2026-05-04 06:57 33.84136 114.05616 39007 ft 506 kts 171°
2026-05-04 06:58 33.77314 114.07742 39006 ft 506 kts 172°
2026-05-04 06:58 33.70498 114.09862 39007 ft 506 kts 172°
2026-05-04 06:59 33.63681 114.11979 38936 ft 507 kts 172°
2026-05-04 06:59 33.56849 114.14096 39008 ft 507 kts 172°
2026-05-04 07:01 33.34930 114.27272 39012 ft 543 kts 127°
2026-05-04 07:01 33.33109 114.31258 39014 ft 549 kts 115°
2026-05-04 07:02 33.30761 114.38342 39011 ft 553 kts 112°
2026-05-04 07:02 33.28137 114.46996 39013 ft 554 kts 112°
2026-05-04 07:03 33.25519 114.55653 39014 ft 554 kts 112°
2026-05-04 07:03 33.22855 114.64297 39015 ft 555 kts 113°
2026-05-04 07:04 33.20157 114.72941 39020 ft 555 kts 113°
2026-05-04 07:04 33.17447 114.81564 39020 ft 556 kts 113°
2026-05-04 07:05 33.14713 114.90206 39025 ft 556 kts 113°
2026-05-04 07:05 33.11973 114.98852 39021 ft 557 kts 113°
2026-05-04 07:06 33.07874 115.11762 39020 ft 558 kts 113°
2026-05-04 07:07 33.05104 115.20457 39017 ft 558 kts 114°
2026-05-04 07:09 32.94070 115.55051 39023 ft 560 kts 113°
2026-05-04 07:09 32.91349 115.63750 39019 ft 560 kts 113°
2026-05-04 07:10 32.88380 115.72300 39016 ft 556 kts 123°
2026-05-04 07:12 32.69177 116.00472 39021 ft 549 kts 135°
2026-05-04 07:12 32.64252 116.07407 39032 ft 550 kts 135°
2026-05-04 07:13 32.59325 116.14347 39030 ft 550 kts 136°
2026-05-04 07:13 32.54393 116.21315 39028 ft 551 kts 135°
2026-05-04 07:14 32.42285 116.38981 39027 ft 553 kts 135°
2026-05-04 07:15 32.37427 116.46026 39029 ft 553 kts 135°
2026-05-04 07:15 32.32561 116.53059 39029 ft 553 kts 135°
2026-05-04 07:16 32.27680 116.60099 39031 ft 553 kts 135°
2026-05-04 07:16 32.22807 116.67115 39035 ft 553 kts 135°
2026-05-04 07:17 32.17929 116.74129 39027 ft 552 kts 135°
2026-05-04 07:17 32.12986 116.81065 39027 ft 552 kts 137°
2026-05-04 07:18 32.07998 116.87942 39024 ft 552 kts 137°
2026-05-04 07:18 32.03049 116.94774 39019 ft 552 kts 137°
2026-05-04 07:19 31.98040 117.01703 39019 ft 552 kts 137°
2026-05-04 07:19 31.93099 117.08567 39021 ft 552 kts 137°
2026-05-04 07:20 31.88092 117.15514 39030 ft 553 kts 137°
2026-05-04 07:20 31.83146 117.22360 39039 ft 553 kts 137°
2026-05-04 07:22 31.75810 117.53186 39058 ft 582 kts 95°
2026-05-04 07:22 31.75531 117.57937 39064 ft 583 kts 95°
2026-05-04 07:23 31.74926 117.67425 39068 ft 583 kts 96°
2026-05-04 07:23 31.74262 117.76921 39072 ft 583 kts 96°
2026-05-04 07:24 31.73574 117.86414 39066 ft 583 kts 96°
2026-05-04 07:24 31.72880 117.95920 39071 ft 584 kts 96°
2026-05-04 07:26 31.70171 118.33914 39068 ft 585 kts 96°
2026-05-04 07:27 31.69500 118.43436 39062 ft 585 kts 96°
2026-05-04 07:27 31.68817 118.52965 39058 ft 585 kts 96°
2026-05-04 07:28 31.68125 118.62494 39060 ft 586 kts 97°
2026-05-04 07:28 31.67426 118.72024 39053 ft 586 kts 97°
2026-05-04 07:29 31.66720 118.81558 39046 ft 586 kts 97°
2026-05-04 07:29 31.66009 118.91085 39046 ft 586 kts 97°
2026-05-04 07:30 31.65290 119.00621 39053 ft 586 kts 97°
2026-05-04 07:30 31.64629 119.10164 39057 ft 587 kts 95°
2026-05-04 07:31 31.64174 119.19723 39066 ft 587 kts 94°
2026-05-04 07:33 31.62731 119.53218 36055 ft 590 kts 96°
2026-05-04 07:33 31.62495 119.58021 35307 ft 589 kts 96°
2026-05-04 07:33 31.62259 119.62820 34559 ft 589 kts 96°
2026-05-04 07:33 31.62022 119.67626 33760 ft 589 kts 96°
2026-05-04 07:34 31.61795 119.72417 32852 ft 589 kts 96°
2026-05-04 07:34 31.61578 119.77149 31932 ft 590 kts 96°
2026-05-04 07:34 31.61358 119.81944 30999 ft 591 kts 96°
2026-05-04 07:34 31.61135 119.86757 30120 ft 591 kts 96°
2026-05-04 07:35 31.60910 119.91556 29348 ft 586 kts 96°
2026-05-04 07:35 31.60687 119.96303 28682 ft 578 kts 96°
2026-05-04 07:35 31.60464 120.00979 28051 ft 571 kts 96°
2026-05-04 07:35 31.60242 120.05603 27418 ft 564 kts 96°
2026-05-04 07:36 31.60021 120.10174 26790 ft 558 kts 95°
2026-05-04 07:36 31.59801 120.14690 26173 ft 551 kts 95°
2026-05-04 07:38 31.55456 120.43806 21971 ft 475 kts 112°
2026-05-04 07:38 31.54351 120.47433 21400 ft 471 kts 111°
2026-05-04 07:38 31.53259 120.51039 20837 ft 467 kts 111°
2026-05-04 07:38 31.52183 120.54607 20266 ft 462 kts 111°
2026-05-04 07:39 31.51119 120.58140 19711 ft 457 kts 110°
2026-05-04 07:39 31.50066 120.61643 19153 ft 452 kts 110°
2026-05-04 07:39 31.49028 120.65092 18581 ft 447 kts 110°
2026-05-04 07:39 31.47999 120.68512 17963 ft 442 kts 110°
2026-05-04 07:40 31.46982 120.71890 17403 ft 436 kts 110°
2026-05-04 07:40 31.45983 120.75209 16837 ft 430 kts 109°
2026-05-04 07:40 31.44992 120.78490 16299 ft 425 kts 109°
2026-05-04 07:40 31.44011 120.81737 15723 ft 421 kts 109°
2026-05-04 07:41 31.43039 120.84954 15185 ft 418 kts 109°
2026-05-04 07:41 31.42074 120.88142 14635 ft 414 kts 109°
2026-05-04 07:41 31.41113 120.91314 14078 ft 411 kts 109°
2026-05-04 07:41 31.40161 120.94453 13516 ft 407 kts 109°
2026-05-04 07:42 31.39225 120.97561 12965 ft 402 kts 109°
2026-05-04 07:42 31.38304 121.00620 12437 ft 398 kts 109°
2026-05-04 07:42 31.37386 121.03660 11891 ft 393 kts 109°
2026-05-04 07:42 31.36474 121.06665 11360 ft 390 kts 109°
2026-05-04 07:43 31.35584 121.09606 11141 ft 375 kts 109°
2026-05-04 07:43 31.34732 121.12428 11006 ft 359 kts 109°
2026-05-04 07:43 31.33904 121.15122 10854 ft 345 kts 109°
2026-05-04 07:43 31.33094 121.17713 10699 ft 332 kts 109°
2026-05-04 07:44 31.32314 121.20204 10545 ft 321 kts 109°
2026-05-04 07:44 31.31562 121.22615 10412 ft 310 kts 109°
2026-05-04 07:44 31.30832 121.24963 10132 ft 305 kts 109°
2026-05-04 07:44 31.30111 121.27278 9816 ft 302 kts 109°
2026-05-04 07:45 31.29393 121.29586 9524 ft 302 kts 109°
2026-05-04 07:45 31.28715 121.31877 9226 ft 301 kts 105°
2026-05-04 07:45 31.28531 121.34176 8989 ft 296 kts 82°
2026-05-04 07:45 31.28880 121.36537 8700 ft 293 kts 76°
2026-05-04 07:46 31.29304 121.38864 8408 ft 292 kts 76°
2026-05-04 07:46 31.29719 121.41181 8129 ft 291 kts 76°
2026-05-04 07:46 31.30124 121.43499 7862 ft 290 kts 76°
2026-05-04 07:46 31.30436 121.45306 7634 ft 289 kts 76°
2026-05-04 07:47 31.30670 121.46662 7461 ft 288 kts 77°
2026-05-04 07:47 31.30872 121.47840 7338 ft 288 kts 77°
2026-05-04 07:47 31.31228 121.49917 7201 ft 279 kts 77°
2026-05-04 07:49 31.40040 121.57788 6052 ft 231 kts 57°
2026-05-04 07:49 31.40575 121.59561 5914 ft 233 kts 75°
2026-05-04 07:49 31.40910 121.61430 5636 ft 235 kts 77°
2026-05-04 07:50 31.41235 121.63318 5292 ft 237 kts 77°
2026-05-04 07:50 31.41569 121.65209 5012 ft 238 kts 77°
2026-05-04 07:50 31.41796 121.67123 4670 ft 239 kts 96°
2026-05-04 07:50 31.41165 121.68860 4428 ft 233 kts 134°
2026-05-04 07:51 31.39822 121.69809 4151 ft 225 kts 165°
2026-05-04 07:51 31.38334 121.70265 3965 ft 223 kts 168°
2026-05-04 07:51 31.36863 121.70735 3887 ft 216 kts 166°
2026-05-04 07:51 31.35460 121.71256 3787 ft 207 kts 164°
2026-05-04 07:52 31.34112 121.71773 3677 ft 203 kts 164°
2026-05-04 07:52 31.32774 121.72284 3461 ft 201 kts 164°
2026-05-04 07:52 31.31461 121.72781 3200 ft 198 kts 164°
2026-05-04 07:52 31.30150 121.73279 2901 ft 197 kts 163°
2026-05-04 07:53 31.28883 121.73761 2636 ft 186 kts 163°
2026-05-04 07:54 31.21624 121.76516 1178 ft 136 kts 162°
2026-05-04 07:55 31.20724 121.76856 1013 ft 136 kts 162°
2026-05-04 07:55 31.19825 121.77197 811 ft 135 kts 161°
2026-05-04 07:55 31.18935 121.77535 648 ft 135 kts 160°
2026-05-04 07:55 31.18040 121.77874 435 ft 136 kts 159°
2026-05-04 07:56 31.17137 121.78216 274 ft 138 kts 159°
2026-05-04 07:56 31.16217 121.78566 89 ft 140 kts 160°
2026-05-04 07:56 31.15318 121.78907 27 ft 126 kts 162°
2026-05-04 07:56 31.14708 121.79136 30 ft 50 kts 162°
2026-05-04 07:57 31.14535 121.79202 30 ft 17 kts 162°
2026-05-04 07:57 31.14408 121.79249 29 ft 21 kts 163°
2026-05-04 07:57 31.14256 121.79309 28 ft 25 kts 157°
2026-05-04 07:57 31.14194 121.79346 27 ft 5 kts 148°
2026-05-04 07:58 31.14141 121.79396 27 ft 12 kts 136°
2026-05-04 07:58 31.14096 121.79451 27 ft 1 kts 134°
2026-05-04 07:58 31.14087 121.79462 27 ft 5 kts 134°
2026-05-04 07:58 31.14048 121.79514 28 ft 12 kts 130°
2026-05-04 07:59 31.14025 121.79608 29 ft 14 kts 79°
2026-05-04 07:59 31.14031 121.79703 29 ft 8 kts 123°
2026-05-04 07:59 31.13967 121.79741 29 ft 14 kts 160°
2026-05-04 07:59 31.13863 121.79781 29 ft 17 kts 162°
2026-05-04 08:00 31.13768 121.79829 29 ft 12 kts 128°
2026-05-04 08:00 31.13779 121.79937 29 ft 16 kts 73°
2026-05-04 08:00 31.13786 121.79966 29 ft 4 kts 73°
2026-05-04 08:02 31.13798 121.80149 29 ft 0 kts 73°